Time,TemperatureF,DewpointF,PressureIn,WindDirection,WindDirectionDegrees,WindSpeedMPH,WindSpeedGustMPH,Humidity,HourlyPrecipIn,Conditions,Clouds,dailyrainin,SoftwareType,DateUTC
2013-01-18 00:01:00,24.1,19.7,30.45,South,180,0.0,0.0,83,0.00,,,0.00,WUHU216HW,2013-01-18 06:01:00,
2013-01-18 00:02:00,24.1,19.7,30.45,South,180,0.0,0.0,83,0.00,,,0.00,WUHU216HW,2013-01-18 06:02:00,
2013-01-18 00:03:00,24.1,19.7,30.45,South,180,0.0,0.0,83,0.00,,,0.00,WUHU216HW,2013-01-18 06:03:00,
2013-01-18 00:05:00,23.8,19.1,30.45,South,180,0.0,0.0,82,0.00,,,0.00,WUHU216HW,2013-01-18 06:05:00,
2013-01-18 00:07:00,23.4,18.7,30.46,South,180,0.0,0.0,82,0.00,,,0.00,WUHU216HW,2013-01-18 06:07:00,
2013-01-18 00:08:00,23.4,18.7,30.46,South,180,0.0,0.0,82,0.00,,,0.00,WUHU216HW,2013-01-18 06:08:00,
2013-01-18 00:09:00,23.4,18.7,30.46,South,180,0.0,0.0,82,0.00,,,0.00,WUHU216HW,2013-01-18 06:09:00,
2013-01-18 00:10:00,23.4,18.7,30.46,South,180,0.0,0.0,82,0.00,,,0.00,WUHU216HW,2013-01-18 06:10:00,
2013-01-18 00:11:00,23.4,18.7,30.45,South,180,0.0,0.0,82,0.00,,,0.00,WUHU216HW,2013-01-18 06:11:00,
2013-01-18 00:13:00,23.4,18.7,30.45,South,180,0.0,0.0,82,0.00,,,0.00,WUHU216HW,2013-01-18 06:13:00,
2013-01-18 00:14:00,23.6,19.2,30.45,South,180,0.0,0.0,83,0.00,,,0.00,WUHU216HW,2013-01-18 06:14:00,
2013-01-18 00:16:00,23.6,19.4,30.45,South,180,0.0,0.0,84,0.00,,,0.00,WUHU216HW,2013-01-18 06:16:00,
2013-01-18 00:17:00,23.6,19.4,30.45,South,180,0.0,0.0,84,0.00,,,0.00,WUHU216HW,2013-01-18 06:17:00,
2013-01-18 00:18:00,23.6,19.4,30.45,South,180,0.0,0.0,84,0.00,,,0.00,WUHU216HW,2013-01-18 06:18:00,
2013-01-18 00:20:00,23.8,19.6,30.45,South,180,0.0,0.0,84,0.00,,,0.00,WUHU216HW,2013-01-18 06:20:00,
2013-01-18 00:22:00,23.8,19.9,30.45,South,180,0.0,0.0,85,0.00,,,0.00,WUHU216HW,2013-01-18 06:22:00,
2013-01-18 00:23:00,23.8,19.9,30.45,South,180,0.0,0.0,85,0.00,,,0.00,WUHU216HW,2013-01-18 06:23:00,
2013-01-18 00:24:00,23.9,20.1,30.45,South,180,0.0,0.0,85,0.00,,,0.00,WUHU216HW,2013-01-18 06:24:00,
2013-01-18 00:28:00,23.8,19.9,30.45,South,180,0.0,0.0,85,0.00,,,0.00,WUHU216HW,2013-01-18 06:28:00,
2013-01-18 00:30:00,23.8,19.6,30.46,South,180,0.0,0.0,84,0.00,,,0.00,WUHU216HW,2013-01-18 06:30:00,
2013-01-18 00:33:00,23.4,19.0,30.46,South,180,0.0,0.0,83,0.00,,,0.00,WUHU216HW,2013-01-18 06:33:00,
2013-01-18 00:34:00,23.4,18.7,30.46,South,180,0.0,0.0,82,0.00,,,0.00,WUHU216HW,2013-01-18 06:34:00,
2013-01-18 00:37:00,23.2,18.8,30.46,South,180,0.0,0.0,83,0.00,,,0.00,WUHU216HW,2013-01-18 06:37:00,
2013-01-18 00:38:00,23.2,18.8,30.46,South,180,0.0,0.0,83,0.00,,,0.00,WUHU216HW,2013-01-18 06:38:00,
2013-01-18 00:39:00,23.0,18.6,30.46,South,180,0.0,0.0,83,0.00,,,0.00,WUHU216HW,2013-01-18 06:39:00,
2013-01-18 00:41:00,23.0,18.6,30.46,South,180,0.0,0.0,83,0.00,,,0.00,WUHU216HW,2013-01-18 06:41:00,
2013-01-18 00:43:00,22.9,18.5,30.46,South,180,0.0,0.0,83,0.00,,,0.00,WUHU216HW,2013-01-18 06:43:00,
2013-01-18 00:45:00,22.9,18.5,30.46,South,180,0.0,0.0,83,0.00,,,0.00,WUHU216HW,2013-01-18 06:45:00,
2013-01-18 00:46:00,22.9,18.5,30.46,South,180,0.0,0.0,83,0.00,,,0.00,WUHU216HW,2013-01-18 06:46:00,
2013-01-18 00:48:00,22.7,18.3,30.46,South,180,0.0,0.0,83,0.00,,,0.00,WUHU216HW,2013-01-18 06:48:00,
2013-01-18 00:50:00,22.7,18.3,30.46,South,180,0.0,0.0,83,0.00,,,0.00,WUHU216HW,2013-01-18 06:50:00,
2013-01-18 00:51:00,22.9,18.7,30.46,South,180,0.0,0.0,84,0.00,,,0.00,WUHU216HW,2013-01-18 06:51:00,
2013-01-18 00:52:00,23.0,18.9,30.46,South,180,0.0,0.0,84,0.00,,,0.00,WUHU216HW,2013-01-18 06:52:00,
2013-01-18 00:53:00,23.0,18.9,30.46,South,180,0.0,0.0,84,0.00,,,0.00,WUHU216HW,2013-01-18 06:53:00,
2013-01-18 00:56:00,23.0,18.9,30.46,South,180,0.0,0.0,84,0.00,,,0.00,WUHU216HW,2013-01-18 06:56:00,
2013-01-18 00:57:00,23.0,18.6,30.46,South,180,0.0,0.0,83,0.00,,,0.00,WUHU216HW,2013-01-18 06:57:00,
2013-01-18 00:59:00,23.0,18.6,30.46,South,180,0.0,0.0,83,0.00,,,0.00,WUHU216HW,2013-01-18 06:59:00,
2013-01-18 01:00:00,22.7,18.3,30.46,South,180,0.0,0.0,83,0.00,,,0.00,WUHU216HW,2013-01-18 07:00:00,
2013-01-18 01:02:00,22.7,18.5,30.46,South,180,0.0,0.0,84,0.00,,,0.00,WUHU216HW,2013-01-18 07:02:00,
2013-01-18 01:03:00,22.7,18.5,30.46,South,180,0.0,0.0,84,0.00,,,0.00,WUHU216HW,2013-01-18 07:03:00,
2013-01-18 01:04:00,22.7,18.5,30.46,South,180,0.0,0.0,84,0.00,,,0.00,WUHU216HW,2013-01-18 07:04:00,
2013-01-18 01:05:00,22.9,18.7,30.46,South,180,0.0,0.0,84,0.00,,,0.00,WUHU216HW,2013-01-18 07:05:00,
2013-01-18 01:06:00,22.9,18.7,30.46,South,180,0.2,0.2,84,0.00,,,0.00,WUHU216HW,2013-01-18 07:06:00,
2013-01-18 01:08:00,23.2,19.4,30.46,SSW,203,0.7,0.7,85,0.00,,,0.00,WUHU216HW,2013-01-18 07:08:00,
2013-01-18 01:09:00,23.2,19.4,30.46,SSW,203,0.7,0.7,85,0.00,,,0.00,WUHU216HW,2013-01-18 07:09:00,
2013-01-18 01:10:00,23.4,19.5,30.46,SW,225,0.7,1.3,85,0.00,,,0.00,WUHU216HW,2013-01-18 07:10:00,
2013-01-18 01:14:00,23.6,19.7,30.46,SW,225,0.0,1.3,85,0.00,,,0.00,WUHU216HW,2013-01-18 07:14:00,
2013-01-18 01:15:00,23.6,19.4,30.46,SW,225,0.0,1.3,84,0.00,,,0.00,WUHU216HW,2013-01-18 07:15:00,
2013-01-18 01:17:00,23.6,19.4,30.46,SW,225,0.0,1.3,84,0.00,,,0.00,WUHU216HW,2013-01-18 07:17:00,
2013-01-18 01:19:00,23.8,19.9,30.46,SW,225,0.9,0.9,85,0.00,,,0.00,WUHU216HW,2013-01-18 07:19:00,
2013-01-18 01:20:00,23.8,19.9,30.46,SW,225,0.7,0.9,85,0.00,,,0.00,WUHU216HW,2013-01-18 07:20:00,
2013-01-18 01:21:00,23.8,19.9,30.46,SW,225,0.2,0.9,85,0.00,,,0.00,WUHU216HW,2013-01-18 07:21:00,
2013-01-18 01:23:00,23.9,20.1,30.46,SW,225,0.0,0.9,85,0.00,,,0.00,WUHU216HW,2013-01-18 07:23:00,
2013-01-18 01:24:00,23.9,20.1,30.46,SW,225,0.0,0.9,85,0.00,,,0.00,WUHU216HW,2013-01-18 07:24:00,
2013-01-18 01:27:00,23.9,19.8,30.46,WSW,248,0.4,0.9,84,0.00,,,0.00,WUHU216HW,2013-01-18 07:27:00,
2013-01-18 01:29:00,23.9,19.8,30.46,SW,225,0.7,0.7,84,0.00,,,0.00,WUHU216HW,2013-01-18 07:29:00,
2013-01-18 01:30:00,24.1,20.3,30.46,SW,225,0.0,0.7,85,0.00,,,0.00,WUHU216HW,2013-01-18 07:30:00,
2013-01-18 01:31:00,24.1,20.3,30.46,SW,225,0.4,0.7,85,0.00,,,0.00,WUHU216HW,2013-01-18 07:31:00,
2013-01-18 01:33:00,24.1,20.3,30.46,SW,225,0.0,0.7,85,0.00,,,0.00,WUHU216HW,2013-01-18 07:33:00,
2013-01-18 01:35:00,24.1,20.3,30.46,SW,225,0.2,0.7,85,0.00,,,0.00,WUHU216HW,2013-01-18 07:35:00,
2013-01-18 01:38:00,24.1,20.3,30.46,SW,225,0.2,0.7,85,0.00,,,0.00,WUHU216HW,2013-01-18 07:38:00,
2013-01-18 01:39:00,24.1,20.3,30.46,SW,225,0.0,0.4,85,0.00,,,0.00,WUHU216HW,2013-01-18 07:39:00,
2013-01-18 01:40:00,24.1,20.3,30.46,SW,225,0.0,0.4,85,0.00,,,0.00,WUHU216HW,2013-01-18 07:40:00,
2013-01-18 01:41:00,24.1,20.3,30.46,SSW,203,0.2,0.4,85,0.00,,,0.00,WUHU216HW,2013-01-18 07:41:00,
2013-01-18 01:42:00,23.9,20.1,30.46,South,180,0.4,0.4,85,0.00,,,0.00,WUHU216HW,2013-01-18 07:42:00,
2013-01-18 01:43:00,23.9,20.1,30.46,South,180,0.7,0.7,85,0.00,,,0.00,WUHU216HW,2013-01-18 07:43:00,
2013-01-18 01:45:00,23.9,20.1,30.46,South,180,0.7,0.7,85,0.00,,,0.00,WUHU216HW,2013-01-18 07:45:00,
2013-01-18 01:47:00,24.1,20.0,30.47,South,180,0.0,0.7,84,0.00,,,0.00,WUHU216HW,2013-01-18 07:47:00,
2013-01-18 01:48:00,23.9,19.8,30.47,South,180,0.0,0.7,84,0.00,,,0.00,WUHU216HW,2013-01-18 07:48:00,
2013-01-18 01:50:00,23.9,19.8,30.47,South,180,0.0,0.7,84,0.00,,,0.00,WUHU216HW,2013-01-18 07:50:00,
2013-01-18 01:51:00,23.9,19.8,30.47,South,180,0.0,0.7,84,0.00,,,0.00,WUHU216HW,2013-01-18 07:51:00,
2013-01-18 01:53:00,23.9,19.8,30.47,South,180,0.0,0.2,84,0.00,,,0.00,WUHU216HW,2013-01-18 07:53:00,
2013-01-18 01:55:00,23.9,20.1,30.47,South,180,0.0,0.0,85,0.00,,,0.00,WUHU216HW,2013-01-18 07:55:00,
2013-01-18 01:56:00,24.1,20.3,30.47,South,180,0.0,0.0,85,0.00,,,0.00,WUHU216HW,2013-01-18 07:56:00,
2013-01-18 01:58:00,24.1,20.3,30.47,WSW,248,0.2,0.2,85,0.00,,,0.00,WUHU216HW,2013-01-18 07:58:00,
2013-01-18 02:00:00,24.3,20.4,30.47,WSW,248,1.1,1.1,85,0.00,,,0.00,WUHU216HW,2013-01-18 08:00:00,
2013-01-18 02:01:00,24.3,20.4,30.47,WSW,248,1.1,1.1,85,0.00,,,0.00,WUHU216HW,2013-01-18 08:01:00,
2013-01-18 02:02:00,24.5,20.6,30.47,WSW,248,0.7,1.1,85,0.00,,,0.00,WUHU216HW,2013-01-18 08:02:00,
2013-01-18 02:04:00,24.5,20.9,30.47,WSW,248,0.7,1.1,86,0.00,,,0.00,WUHU216HW,2013-01-18 08:04:00,
2013-01-18 02:05:00,24.7,21.1,30.47,WSW,248,0.4,1.1,86,0.00,,,0.00,WUHU216HW,2013-01-18 08:05:00,
2013-01-18 02:07:00,24.8,21.2,30.47,WSW,248,0.0,1.1,86,0.00,,,0.00,WUHU216HW,2013-01-18 08:07:00,
2013-01-18 02:08:00,24.8,21.2,30.47,WSW,248,0.0,1.1,86,0.00,,,0.00,WUHU216HW,2013-01-18 08:08:00,
2013-01-18 02:10:00,24.8,21.2,30.47,WSW,248,0.0,1.1,86,0.00,,,0.00,WUHU216HW,2013-01-18 08:10:00,
2013-01-18 02:11:00,24.8,21.2,30.47,WSW,248,0.0,1.1,86,0.00,,,0.00,WUHU216HW,2013-01-18 08:11:00,
2013-01-18 02:12:00,25.0,21.4,30.46,WSW,248,0.0,0.7,86,0.00,,,0.00,WUHU216HW,2013-01-18 08:12:00,
2013-01-18 02:14:00,25.0,21.4,30.47,WSW,248,0.0,0.4,86,0.00,,,0.00,WUHU216HW,2013-01-18 08:14:00,
2013-01-18 02:16:00,25.0,21.4,30.47,WSW,248,0.0,0.4,86,0.00,,,0.00,WUHU216HW,2013-01-18 08:16:00,
2013-01-18 02:17:00,25.2,21.6,30.47,WSW,248,0.0,0.2,86,0.00,,,0.00,WUHU216HW,2013-01-18 08:17:00,
2013-01-18 02:18:00,25.2,21.9,30.47,WSW,248,0.0,0.0,87,0.00,,,0.00,WUHU216HW,2013-01-18 08:18:00,
2013-01-18 02:20:00,25.2,21.9,30.47,SW,225,0.2,0.2,87,0.00,,,0.00,WUHU216HW,2013-01-18 08:20:00,
2013-01-18 02:21:00,25.2,21.9,30.47,SW,225,0.2,0.2,87,0.00,,,0.00,WUHU216HW,2013-01-18 08:21:00,
2013-01-18 02:23:00,25.6,22.2,30.47,SSW,203,1.8,1.8,87,0.00,,,0.00,WUHU216HW,2013-01-18 08:23:00,
2013-01-18 02:24:00,25.6,22.5,30.47,SSW,203,2.2,2.2,88,0.00,,,0.00,WUHU216HW,2013-01-18 08:24:00,
2013-01-18 02:26:00,25.7,22.7,30.47,SSW,203,2.2,2.2,88,0.00,,,0.00,WUHU216HW,2013-01-18 08:26:00,
2013-01-18 02:27:00,25.9,23.1,30.47,South,180,3.1,3.1,89,0.00,,,0.00,WUHU216HW,2013-01-18 08:27:00,
2013-01-18 02:28:00,25.9,23.1,30.47,South,180,2.9,3.1,89,0.00,,,0.00,WUHU216HW,2013-01-18 08:28:00,
2013-01-18 02:29:00,26.1,23.3,30.47,South,180,2.2,3.1,89,0.00,,,0.00,WUHU216HW,2013-01-18 08:29:00,
2013-01-18 02:31:00,26.3,23.5,30.47,South,180,3.8,3.8,89,0.00,,,0.00,WUHU216HW,2013-01-18 08:31:00,
2013-01-18 02:32:00,26.3,23.5,30.47,South,180,4.0,4.0,89,0.00,,,0.00,WUHU216HW,2013-01-18 08:32:00,
2013-01-18 02:33:00,26.5,23.4,30.47,South,180,4.5,4.5,88,0.00,,,0.00,WUHU216HW,2013-01-18 08:33:00,
2013-01-18 02:36:00,26.6,23.6,30.47,South,180,4.0,4.5,88,0.00,,,0.00,WUHU216HW,2013-01-18 08:36:00,
2013-01-18 02:39:00,26.8,23.8,30.47,South,180,5.1,5.1,88,0.00,,,0.00,WUHU216HW,2013-01-18 08:39:00,
2013-01-18 02:41:00,27.0,24.0,30.47,South,180,4.5,5.1,88,0.00,,,0.00,WUHU216HW,2013-01-18 08:41:00,
2013-01-18 02:42:00,27.0,24.0,30.47,South,180,4.3,5.1,88,0.00,,,0.00,WUHU216HW,2013-01-18 08:42:00,
2013-01-18 02:44:00,27.2,24.1,30.47,South,180,4.3,5.1,88,0.00,,,0.00,WUHU216HW,2013-01-18 08:44:00,
2013-01-18 02:46:00,27.4,24.3,30.47,South,180,4.7,5.1,88,0.00,,,0.00,WUHU216HW,2013-01-18 08:46:00,
2013-01-18 02:48:00,27.9,24.9,30.47,South,180,3.8,5.1,88,0.00,,,0.00,WUHU216HW,2013-01-18 08:48:00,
2013-01-18 02:49:00,28.1,24.7,30.46,South,180,4.0,4.7,87,0.00,,,0.00,WUHU216HW,2013-01-18 08:49:00,
2013-01-18 02:50:00,28.3,24.8,30.46,South,180,3.4,4.7,87,0.00,,,0.00,WUHU216HW,2013-01-18 08:50:00,
2013-01-18 02:51:00,28.3,24.8,30.46,South,180,3.4,4.7,87,0.00,,,0.00,WUHU216HW,2013-01-18 08:51:00,
2013-01-18 02:52:00,28.4,24.8,30.47,South,180,3.8,4.7,86,0.00,,,0.00,WUHU216HW,2013-01-18 08:52:00,
2013-01-18 02:54:00,28.4,25.0,30.46,South,180,4.0,4.7,87,0.00,,,0.00,WUHU216HW,2013-01-18 08:54:00,
2013-01-18 02:56:00,28.6,24.9,30.46,South,180,4.0,4.7,86,0.00,,,0.00,WUHU216HW,2013-01-18 08:56:00,
2013-01-18 02:57:00,28.8,25.1,30.46,SSW,203,3.4,4.0,86,0.00,,,0.00,WUHU216HW,2013-01-18 08:57:00,
2013-01-18 03:00:00,28.8,25.1,30.46,South,180,3.1,4.0,86,0.00,,,0.00,WUHU216HW,2013-01-18 09:00:00,
2013-01-18 03:01:00,28.8,25.1,30.46,South,180,3.1,4.0,86,0.00,,,0.00,WUHU216HW,2013-01-18 09:01:00,
2013-01-18 03:02:00,28.8,25.1,30.46,South,180,3.1,4.0,86,0.00,,,0.00,WUHU216HW,2013-01-18 09:02:00,
2013-01-18 03:03:00,28.6,24.9,30.46,South,180,3.4,4.0,86,0.00,,,0.00,WUHU216HW,2013-01-18 09:03:00,
2013-01-18 03:05:00,28.6,24.9,30.46,South,180,3.4,4.0,86,0.00,,,0.00,WUHU216HW,2013-01-18 09:05:00,
2013-01-18 03:07:00,28.6,24.9,30.46,South,180,3.1,4.0,86,0.00,,,0.00,WUHU216HW,2013-01-18 09:07:00,
2013-01-18 03:09:00,28.8,25.1,30.46,SSW,203,1.8,3.8,86,0.00,,,0.00,WUHU216HW,2013-01-18 09:09:00,
2013-01-18 03:11:00,28.6,24.7,30.46,SSW,203,1.8,3.6,85,0.00,,,0.00,WUHU216HW,2013-01-18 09:11:00,
2013-01-18 03:12:00,28.6,24.7,30.46,SSW,203,1.8,3.6,85,0.00,,,0.00,WUHU216HW,2013-01-18 09:12:00,
2013-01-18 03:15:00,28.3,24.3,30.46,SSW,203,0.9,3.1,85,0.00,,,0.00,WUHU216HW,2013-01-18 09:15:00,
2013-01-18 03:16:00,28.1,23.9,30.46,South,180,0.2,2.5,84,0.00,,,0.00,WUHU216HW,2013-01-18 09:16:00,
2013-01-18 03:17:00,28.1,23.9,30.46,South,180,0.2,2.5,84,0.00,,,0.00,WUHU216HW,2013-01-18 09:17:00,
2013-01-18 03:20:00,27.4,22.9,30.45,SSW,203,0.0,1.8,83,0.00,,,0.00,WUHU216HW,2013-01-18 09:20:00,
2013-01-18 03:21:00,27.2,22.7,30.45,SSW,203,0.0,1.8,83,0.00,,,0.00,WUHU216HW,2013-01-18 09:21:00,
2013-01-18 03:22:00,27.2,22.7,30.45,SSW,203,0.0,1.8,83,0.00,,,0.00,WUHU216HW,2013-01-18 09:22:00,
2013-01-18 03:23:00,26.8,22.3,30.45,SSW,203,0.0,1.6,83,0.00,,,0.00,WUHU216HW,2013-01-18 09:23:00,
2013-01-18 03:24:00,26.6,22.2,30.45,SSW,203,0.0,0.4,83,0.00,,,0.00,WUHU216HW,2013-01-18 09:24:00,
2013-01-18 03:26:00,26.3,22.1,30.45,SW,225,0.0,0.4,84,0.00,,,0.00,WUHU216HW,2013-01-18 09:26:00,
2013-01-18 03:27:00,26.3,22.1,30.45,SW,225,0.0,0.4,84,0.00,,,0.00,WUHU216HW,2013-01-18 09:27:00,
2013-01-18 03:29:00,26.3,22.3,30.45,SW,225,0.2,0.2,85,0.00,,,0.00,WUHU216HW,2013-01-18 09:29:00,
2013-01-18 03:31:00,26.3,22.3,30.45,SSW,203,0.4,0.4,85,0.00,,,0.00,WUHU216HW,2013-01-18 09:31:00,
2013-01-18 03:32:00,26.3,22.3,30.45,SSW,203,0.0,0.4,85,0.00,,,0.00,WUHU216HW,2013-01-18 09:32:00,
2013-01-18 03:34:00,26.3,22.3,30.45,SSW,203,0.0,0.4,85,0.00,,,0.00,WUHU216HW,2013-01-18 09:34:00,
2013-01-18 03:36:00,26.3,22.3,30.44,South,180,0.2,0.4,85,0.00,,,0.00,WUHU216HW,2013-01-18 09:36:00,
2013-01-18 03:37:00,26.3,22.3,30.44,South,180,0.2,0.4,85,0.00,,,0.00,WUHU216HW,2013-01-18 09:37:00,
2013-01-18 03:38:00,26.1,22.1,30.44,SSE,158,0.2,0.9,85,0.00,,,0.00,WUHU216HW,2013-01-18 09:38:00,
2013-01-18 03:39:00,26.1,22.1,30.44,SSE,158,0.2,0.9,85,0.00,,,0.00,WUHU216HW,2013-01-18 09:39:00,
2013-01-18 03:42:00,26.1,22.1,30.44,SSE,158,0.4,0.9,85,0.00,,,0.00,WUHU216HW,2013-01-18 09:42:00,
2013-01-18 03:47:00,26.1,22.4,30.44,South,180,0.2,1.3,86,0.00,,,0.00,WUHU216HW,2013-01-18 09:47:00,
2013-01-18 03:48:00,26.3,22.6,30.44,South,180,0.4,1.3,86,0.00,,,0.00,WUHU216HW,2013-01-18 09:48:00,
2013-01-18 03:49:00,26.3,22.6,30.44,South,180,0.0,1.3,86,0.00,,,0.00,WUHU216HW,2013-01-18 09:49:00,
2013-01-18 03:51:00,26.3,22.3,30.44,South,180,0.0,1.3,85,0.00,,,0.00,WUHU216HW,2013-01-18 09:51:00,
2013-01-18 03:52:00,26.3,22.3,30.44,South,180,0.0,1.3,85,0.00,,,0.00,WUHU216HW,2013-01-18 09:52:00,
2013-01-18 03:53:00,26.1,22.1,30.44,South,180,0.0,1.3,85,0.00,,,0.00,WUHU216HW,2013-01-18 09:53:00,
2013-01-18 03:54:00,26.1,22.1,30.44,South,180,0.2,1.3,85,0.00,,,0.00,WUHU216HW,2013-01-18 09:54:00,
2013-01-18 03:56:00,26.1,22.1,30.44,South,180,0.0,0.4,85,0.00,,,0.00,WUHU216HW,2013-01-18 09:56:00,
2013-01-18 03:57:00,26.1,22.1,30.44,South,180,0.0,0.4,85,0.00,,,0.00,WUHU216HW,2013-01-18 09:57:00,
2013-01-18 03:58:00,26.1,22.1,30.44,South,180,0.0,0.4,85,0.00,,,0.00,WUHU216HW,2013-01-18 09:58:00,
2013-01-18 04:01:00,25.9,22.0,30.44,South,180,0.2,0.4,85,0.00,,,0.00,WUHU216HW,2013-01-18 10:01:00,
2013-01-18 04:03:00,25.9,22.0,30.44,South,180,0.4,0.4,85,0.00,,,0.00,WUHU216HW,2013-01-18 10:03:00,
2013-01-18 04:04:00,25.9,22.0,30.44,South,180,0.2,0.4,85,0.00,,,0.00,WUHU216HW,2013-01-18 10:04:00,
2013-01-18 04:05:00,25.9,22.0,30.44,South,180,0.2,0.4,85,0.00,,,0.00,WUHU216HW,2013-01-18 10:05:00,
2013-01-18 04:07:00,25.7,21.9,30.43,South,180,0.0,0.4,85,0.00,,,0.00,WUHU216HW,2013-01-18 10:07:00,
2013-01-18 04:08:00,25.7,21.9,30.43,South,180,0.2,0.4,85,0.00,,,0.00,WUHU216HW,2013-01-18 10:08:00,
2013-01-18 04:10:00,25.7,21.9,30.43,SSW,203,0.0,0.4,85,0.00,,,0.00,WUHU216HW,2013-01-18 10:10:00,
2013-01-18 04:12:00,25.6,21.7,30.43,SSW,203,0.0,0.4,85,0.00,,,0.00,WUHU216HW,2013-01-18 10:12:00,
2013-01-18 04:13:00,25.6,21.7,30.43,SSW,203,0.0,0.2,85,0.00,,,0.00,WUHU216HW,2013-01-18 10:13:00,
2013-01-18 04:14:00,25.6,21.7,30.43,SSW,203,0.0,0.2,85,0.00,,,0.00,WUHU216HW,2013-01-18 10:14:00,
2013-01-18 04:16:00,25.6,21.7,30.43,SSW,203,0.0,0.2,85,0.00,,,0.00,WUHU216HW,2013-01-18 10:16:00,
2013-01-18 04:17:00,25.6,21.7,30.43,SSW,203,0.0,0.2,85,0.00,,,0.00,WUHU216HW,2013-01-18 10:17:00,
2013-01-18 04:18:00,25.6,21.7,30.43,SSW,203,0.0,0.2,85,0.00,,,0.00,WUHU216HW,2013-01-18 10:18:00,
2013-01-18 04:19:00,25.6,21.7,30.43,SSW,203,0.0,0.2,85,0.00,,,0.00,WUHU216HW,2013-01-18 10:19:00,
2013-01-18 04:21:00,25.6,21.7,30.43,SSW,203,0.0,0.2,85,0.00,,,0.00,WUHU216HW,2013-01-18 10:21:00,
2013-01-18 04:23:00,25.6,21.7,30.43,SSW,203,0.0,0.2,85,0.00,,,0.00,WUHU216HW,2013-01-18 10:23:00,
2013-01-18 04:24:00,25.6,22.0,30.43,SSW,203,0.0,0.2,86,0.00,,,0.00,WUHU216HW,2013-01-18 10:24:00,
2013-01-18 04:25:00,25.6,22.0,30.43,SSW,203,0.2,0.2,86,0.00,,,0.00,WUHU216HW,2013-01-18 10:25:00,
2013-01-18 04:26:00,25.6,22.0,30.43,SSW,203,0.0,0.2,86,0.00,,,0.00,WUHU216HW,2013-01-18 10:26:00,
2013-01-18 04:28:00,25.6,22.0,30.43,SSE,158,0.2,0.2,86,0.00,,,0.00,WUHU216HW,2013-01-18 10:28:00,
2013-01-18 04:29:00,25.6,22.0,30.43,SSE,158,0.2,0.2,86,0.00,,,0.00,WUHU216HW,2013-01-18 10:29:00,
2013-01-18 04:30:00,25.6,22.0,30.43,SSE,158,0.2,0.2,86,0.00,,,0.00,WUHU216HW,2013-01-18 10:30:00,
2013-01-18 04:32:00,25.6,22.0,30.43,SSE,158,0.2,0.2,86,0.00,,,0.00,WUHU216HW,2013-01-18 10:32:00,
2013-01-18 04:34:00,25.6,22.0,30.43,SSE,158,0.0,0.2,86,0.00,,,0.00,WUHU216HW,2013-01-18 10:34:00,
2013-01-18 04:36:00,25.6,22.0,30.43,SSE,158,0.2,0.2,86,0.00,,,0.00,WUHU216HW,2013-01-18 10:36:00,
2013-01-18 04:38:00,25.6,22.0,30.43,SSE,158,0.2,0.4,86,0.00,,,0.00,WUHU216HW,2013-01-18 10:38:00,
2013-01-18 04:39:00,25.6,22.0,30.43,SSE,158,0.2,0.4,86,0.00,,,0.00,WUHU216HW,2013-01-18 10:39:00,
2013-01-18 04:41:00,25.7,22.7,30.43,SE,135,0.7,0.7,88,0.00,,,0.00,WUHU216HW,2013-01-18 10:41:00,
2013-01-18 04:44:00,26.1,23.3,30.43,SE,135,0.7,0.7,89,0.00,,,0.00,WUHU216HW,2013-01-18 10:44:00,
2013-01-18 04:47:00,26.3,23.5,30.43,SE,135,1.1,1.3,89,0.00,,,0.00,WUHU216HW,2013-01-18 10:47:00,
2013-01-18 04:48:00,26.3,23.5,30.43,SE,135,0.7,1.3,89,0.00,,,0.00,WUHU216HW,2013-01-18 10:48:00,
2013-01-18 04:49:00,26.3,23.5,30.43,SE,135,0.7,1.3,89,0.00,,,0.00,WUHU216HW,2013-01-18 10:49:00,
2013-01-18 04:51:00,26.3,23.2,30.43,SE,135,0.4,1.3,88,0.00,,,0.00,WUHU216HW,2013-01-18 10:51:00,
2013-01-18 04:54:00,26.3,23.2,30.43,SE,135,0.2,1.3,88,0.00,,,0.00,WUHU216HW,2013-01-18 10:54:00,
2013-01-18 04:55:00,26.1,22.8,30.43,SE,135,0.4,1.1,87,0.00,,,0.00,WUHU216HW,2013-01-18 10:55:00,
2013-01-18 04:57:00,25.7,22.4,30.43,SE,135,0.4,0.7,87,0.00,,,0.00,WUHU216HW,2013-01-18 10:57:00,
2013-01-18 04:58:00,25.7,22.4,30.43,SSE,158,0.7,0.7,87,0.00,,,0.00,WUHU216HW,2013-01-18 10:58:00,
2013-01-18 04:59:00,25.7,22.4,30.43,SSE,158,0.7,0.7,87,0.00,,,0.00,WUHU216HW,2013-01-18 10:59:00,
2013-01-18 05:00:00,25.7,22.4,30.42,SSE,158,1.3,1.3,87,0.00,,,0.00,WUHU216HW,2013-01-18 11:00:00,
2013-01-18 05:01:00,25.6,22.5,30.43,SSE,158,3.4,3.4,88,0.00,,,0.00,WUHU216HW,2013-01-18 11:01:00,
2013-01-18 05:03:00,25.9,23.1,30.43,SSE,158,4.3,4.3,89,0.00,,,0.00,WUHU216HW,2013-01-18 11:03:00,
2013-01-18 05:04:00,26.1,23.6,30.42,SSE,158,4.0,4.3,90,0.00,,,0.00,WUHU216HW,2013-01-18 11:04:00,
2013-01-18 05:06:00,27.0,24.5,30.42,SSE,158,3.4,4.3,90,0.00,,,0.00,WUHU216HW,2013-01-18 11:06:00,
2013-01-18 05:07:00,27.5,24.8,30.42,SSE,158,3.6,4.3,89,0.00,,,0.00,WUHU216HW,2013-01-18 11:07:00,
2013-01-18 05:09:00,28.1,25.0,30.42,SSE,158,2.5,4.3,88,0.00,,,0.00,WUHU216HW,2013-01-18 11:09:00,
2013-01-18 05:10:00,28.4,25.0,30.42,South,180,3.1,4.3,87,0.00,,,0.00,WUHU216HW,2013-01-18 11:10:00,
2013-01-18 05:11:00,28.4,24.8,30.42,SSE,158,3.1,4.3,86,0.00,,,0.00,WUHU216HW,2013-01-18 11:11:00,
2013-01-18 05:13:00,28.8,25.1,30.42,South,180,3.6,4.0,86,0.00,,,0.00,WUHU216HW,2013-01-18 11:13:00,
2013-01-18 05:15:00,28.8,25.1,30.42,South,180,3.1,3.8,86,0.00,,,0.00,WUHU216HW,2013-01-18 11:15:00,
2013-01-18 05:16:00,29.0,25.0,30.42,South,180,4.3,4.3,85,0.00,,,0.00,WUHU216HW,2013-01-18 11:16:00,
2013-01-18 05:17:00,29.0,25.0,30.42,South,180,3.6,4.3,85,0.00,,,0.00,WUHU216HW,2013-01-18 11:17:00,
2013-01-18 05:19:00,29.0,25.0,30.42,South,180,3.4,4.3,85,0.00,,,0.00,WUHU216HW,2013-01-18 11:19:00,
2013-01-18 05:20:00,29.0,25.0,30.42,South,180,3.4,4.3,85,0.00,,,0.00,WUHU216HW,2013-01-18 11:20:00,
2013-01-18 05:21:00,29.0,25.0,30.42,South,180,3.1,4.3,85,0.00,,,0.00,WUHU216HW,2013-01-18 11:21:00,
2013-01-18 05:24:00,29.0,25.0,30.42,South,180,2.5,4.3,85,0.00,,,0.00,WUHU216HW,2013-01-18 11:24:00,
2013-01-18 05:25:00,29.0,25.0,30.42,South,180,2.5,4.3,85,0.00,,,0.00,WUHU216HW,2013-01-18 11:25:00,
2013-01-18 05:26:00,29.0,25.0,30.42,South,180,2.9,3.8,85,0.00,,,0.00,WUHU216HW,2013-01-18 11:26:00,
2013-01-18 05:28:00,29.0,25.0,30.42,South,180,3.4,3.8,85,0.00,,,0.00,WUHU216HW,2013-01-18 11:28:00,
2013-01-18 05:29:00,29.0,25.0,30.42,South,180,3.4,3.8,85,0.00,,,0.00,WUHU216HW,2013-01-18 11:29:00,
2013-01-18 05:30:00,29.0,25.0,30.42,South,180,3.4,3.8,85,0.00,,,0.00,WUHU216HW,2013-01-18 11:30:00,
2013-01-18 05:33:00,28.6,24.7,30.42,South,180,2.9,3.4,85,0.00,,,0.00,WUHU216HW,2013-01-18 11:33:00,
2013-01-18 05:34:00,28.6,24.7,30.42,South,180,2.7,3.4,85,0.00,,,0.00,WUHU216HW,2013-01-18 11:34:00,
2013-01-18 05:35:00,28.6,24.7,30.42,South,180,2.7,3.4,85,0.00,,,0.00,WUHU216HW,2013-01-18 11:35:00,
2013-01-18 05:36:00,28.4,24.5,30.42,South,180,2.5,3.4,85,0.00,,,0.00,WUHU216HW,2013-01-18 11:36:00,
2013-01-18 05:37:00,28.4,24.5,30.42,South,180,3.1,3.4,85,0.00,,,0.00,WUHU216HW,2013-01-18 11:37:00,
2013-01-18 05:38:00,28.4,24.5,30.42,South,180,2.7,3.1,85,0.00,,,0.00,WUHU216HW,2013-01-18 11:38:00,
2013-01-18 05:40:00,28.4,24.5,30.42,South,180,2.7,3.1,85,0.00,,,0.00,WUHU216HW,2013-01-18 11:40:00,
2013-01-18 05:41:00,28.4,24.5,30.42,South,180,3.4,3.8,85,0.00,,,0.00,WUHU216HW,2013-01-18 11:41:00,
2013-01-18 05:43:00,28.4,24.5,30.42,South,180,2.9,3.8,85,0.00,,,0.00,WUHU216HW,2013-01-18 11:43:00,
2013-01-18 05:44:00,28.4,24.5,30.42,South,180,3.1,3.8,85,0.00,,,0.00,WUHU216HW,2013-01-18 11:44:00,
2013-01-18 05:45:00,28.4,24.5,30.42,South,180,3.1,3.8,85,0.00,,,0.00,WUHU216HW,2013-01-18 11:45:00,
2013-01-18 05:47:00,28.4,24.5,30.42,South,180,3.1,3.8,85,0.00,,,0.00,WUHU216HW,2013-01-18 11:47:00,
2013-01-18 05:49:00,28.3,24.3,30.41,South,180,2.7,3.4,85,0.00,,,0.00,WUHU216HW,2013-01-18 11:49:00,
2013-01-18 05:50:00,28.3,24.3,30.41,South,180,2.7,3.4,85,0.00,,,0.00,WUHU216HW,2013-01-18 11:50:00,
2013-01-18 05:52:00,28.1,23.9,30.41,South,180,3.1,3.4,84,0.00,,,0.00,WUHU216HW,2013-01-18 11:52:00,
2013-01-18 05:53:00,27.9,23.7,30.41,SSE,158,3.4,3.4,84,0.00,,,0.00,WUHU216HW,2013-01-18 11:53:00,
2013-01-18 05:55:00,27.9,23.9,30.41,SSE,158,3.4,3.6,85,0.00,,,0.00,WUHU216HW,2013-01-18 11:55:00,
2013-01-18 05:57:00,27.9,23.9,30.41,SSE,158,3.8,3.8,85,0.00,,,0.00,WUHU216HW,2013-01-18 11:57:00,
2013-01-18 06:00:00,27.9,23.7,30.41,South,180,3.8,3.8,84,0.00,,,0.00,WUHU216HW,2013-01-18 12:00:00,
2013-01-18 06:01:00,27.9,23.7,30.41,SSE,158,3.8,3.8,84,0.00,,,0.00,WUHU216HW,2013-01-18 12:01:00,
2013-01-18 06:03:00,27.9,23.9,30.41,SSE,158,3.6,3.8,85,0.00,,,0.00,WUHU216HW,2013-01-18 12:03:00,
2013-01-18 06:05:00,27.9,23.9,30.41,SSE,158,3.4,3.8,85,0.00,,,0.00,WUHU216HW,2013-01-18 12:05:00,
2013-01-18 06:06:00,27.9,23.9,30.41,SSE,158,3.4,3.8,85,0.00,,,0.00,WUHU216HW,2013-01-18 12:06:00,
2013-01-18 06:09:00,28.3,24.6,30.41,SSE,158,3.8,3.8,86,0.00,,,0.00,WUHU216HW,2013-01-18 12:09:00,
2013-01-18 06:10:00,28.3,24.6,30.41,SSE,158,3.6,3.8,86,0.00,,,0.00,WUHU216HW,2013-01-18 12:10:00,
2013-01-18 06:11:00,28.3,24.6,30.41,SSE,158,3.6,3.8,86,0.00,,,0.00,WUHU216HW,2013-01-18 12:11:00,
2013-01-18 06:13:00,28.4,24.5,30.41,SSE,158,3.6,3.8,85,0.00,,,0.00,WUHU216HW,2013-01-18 12:13:00,
2013-01-18 06:14:00,28.4,24.5,30.41,SSE,158,3.8,3.8,85,0.00,,,0.00,WUHU216HW,2013-01-18 12:14:00,
2013-01-18 06:15:00,28.6,24.7,30.41,SSE,158,4.0,4.0,85,0.00,,,0.00,WUHU216HW,2013-01-18 12:15:00,
2013-01-18 06:16:00,28.6,24.7,30.41,SSE,158,4.0,4.0,85,0.00,,,0.00,WUHU216HW,2013-01-18 12:16:00,
2013-01-18 06:17:00,28.8,24.8,30.41,SSE,158,3.1,4.7,85,0.00,,,0.00,WUHU216HW,2013-01-18 12:17:00,
2013-01-18 06:19:00,28.8,24.6,30.41,SSE,158,4.7,4.7,84,0.00,,,0.00,WUHU216HW,2013-01-18 12:19:00,
2013-01-18 06:21:00,29.0,24.8,30.41,SSE,158,3.4,4.7,84,0.00,,,0.00,WUHU216HW,2013-01-18 12:21:00,
2013-01-18 06:22:00,29.0,24.8,30.41,South,180,3.6,4.7,84,0.00,,,0.00,WUHU216HW,2013-01-18 12:22:00,
2013-01-18 06:23:00,28.8,24.3,30.41,SSE,158,4.5,4.7,83,0.00,,,0.00,WUHU216HW,2013-01-18 12:23:00,
2013-01-18 06:26:00,28.6,24.1,30.41,SSE,158,4.7,4.7,83,0.00,,,0.00,WUHU216HW,2013-01-18 12:26:00,
2013-01-18 06:27:00,28.4,24.2,30.40,South,180,4.7,4.7,84,0.00,,,0.00,WUHU216HW,2013-01-18 12:27:00,
2013-01-18 06:29:00,28.4,24.2,30.40,SSE,158,4.5,4.7,84,0.00,,,0.00,WUHU216HW,2013-01-18 12:29:00,
2013-01-18 06:31:00,28.4,24.2,30.40,South,180,4.0,4.7,84,0.00,,,0.00,WUHU216HW,2013-01-18 12:31:00,
2013-01-18 06:32:00,28.4,24.2,30.40,South,180,3.8,4.7,84,0.00,,,0.00,WUHU216HW,2013-01-18 12:32:00,
2013-01-18 06:33:00,28.3,24.0,30.40,South,180,4.5,4.7,84,0.00,,,0.00,WUHU216HW,2013-01-18 12:33:00,
2013-01-18 06:35:00,28.3,24.3,30.40,South,180,3.4,4.7,85,0.00,,,0.00,WUHU216HW,2013-01-18 12:35:00,
2013-01-18 06:36:00,28.3,24.3,30.40,South,180,3.4,4.7,85,0.00,,,0.00,WUHU216HW,2013-01-18 12:36:00,
2013-01-18 06:38:00,28.3,24.3,30.40,South,180,4.7,4.7,85,0.00,,,0.00,WUHU216HW,2013-01-18 12:38:00,
2013-01-18 06:41:00,28.3,24.3,30.40,SSE,158,3.8,4.7,85,0.00,,,0.00,WUHU216HW,2013-01-18 12:41:00,
2013-01-18 06:46:00,28.6,24.4,30.40,SSE,158,4.5,4.7,84,0.00,,,0.00,WUHU216HW,2013-01-18 12:46:00,
2013-01-18 06:47:00,28.6,24.4,30.40,SSE,158,4.5,4.7,84,0.00,,,0.00,WUHU216HW,2013-01-18 12:47:00,
2013-01-18 06:49:00,28.8,24.6,30.40,SSE,158,4.7,5.1,84,0.00,,,0.00,WUHU216HW,2013-01-18 12:49:00,
2013-01-18 06:51:00,28.8,24.6,30.40,South,180,4.3,5.1,84,0.00,,,0.00,WUHU216HW,2013-01-18 12:51:00,
2013-01-18 06:52:00,28.8,24.6,30.40,South,180,4.3,5.1,84,0.00,,,0.00,WUHU216HW,2013-01-18 12:52:00,
2013-01-18 06:53:00,28.8,24.3,30.40,South,180,4.0,5.1,83,0.00,,,0.00,WUHU216HW,2013-01-18 12:53:00,
2013-01-18 06:57:00,28.8,24.3,30.40,South,180,2.7,5.1,83,0.00,,,0.00,WUHU216HW,2013-01-18 12:57:00,
2013-01-18 06:58:00,28.6,24.1,30.40,South,180,3.8,4.7,83,0.00,,,0.00,WUHU216HW,2013-01-18 12:58:00,
2013-01-18 07:01:00,28.6,24.4,30.40,South,180,3.8,4.3,84,0.00,,,0.00,WUHU216HW,2013-01-18 13:01:00,
2013-01-18 07:02:00,28.6,24.4,30.40,South,180,4.0,4.0,84,0.00,,,0.00,WUHU216HW,2013-01-18 13:02:00,
2013-01-18 07:03:00,28.6,24.1,30.40,South,180,4.0,4.0,83,0.00,,,0.00,WUHU216HW,2013-01-18 13:03:00,
2013-01-18 07:04:00,28.6,24.4,30.40,South,180,4.3,4.3,84,0.00,,,0.00,WUHU216HW,2013-01-18 13:04:00,
2013-01-18 07:06:00,28.6,24.1,30.40,South,180,4.5,4.7,83,0.00,,,0.00,WUHU216HW,2013-01-18 13:06:00,
2013-01-18 07:07:00,28.6,24.1,30.40,South,180,4.7,4.7,83,0.00,,,0.00,WUHU216HW,2013-01-18 13:07:00,
2013-01-18 07:10:00,28.8,24.3,30.40,South,180,4.3,5.1,83,0.00,,,0.00,WUHU216HW,2013-01-18 13:10:00,
2013-01-18 07:12:00,28.8,24.3,30.40,South,180,4.5,5.1,83,0.00,,,0.00,WUHU216HW,2013-01-18 13:12:00,
2013-01-18 07:13:00,28.8,24.3,30.40,South,180,3.1,5.1,83,0.00,,,0.00,WUHU216HW,2013-01-18 13:13:00,
2013-01-18 07:14:00,28.8,24.3,30.40,South,180,3.4,5.1,83,0.00,,,0.00,WUHU216HW,2013-01-18 13:14:00,
2013-01-18 07:15:00,28.8,24.3,30.40,South,180,3.4,5.1,83,0.00,,,0.00,WUHU216HW,2013-01-18 13:15:00,
2013-01-18 07:17:00,28.8,24.3,30.40,South,180,3.4,5.1,83,0.00,,,0.00,WUHU216HW,2013-01-18 13:17:00,
2013-01-18 07:19:00,28.6,24.1,30.40,South,180,3.4,4.5,83,0.00,,,0.00,WUHU216HW,2013-01-18 13:19:00,
2013-01-18 07:21:00,28.6,24.1,30.40,South,180,5.1,5.1,83,0.00,,,0.00,WUHU216HW,2013-01-18 13:21:00,
2013-01-18 07:22:00,28.6,24.1,30.40,South,180,3.6,5.1,83,0.00,,,0.00,WUHU216HW,2013-01-18 13:22:00,
2013-01-18 07:23:00,28.6,24.1,30.40,South,180,3.4,5.1,83,0.00,,,0.00,WUHU216HW,2013-01-18 13:23:00,
2013-01-18 07:25:00,28.6,24.1,30.39,SSE,158,4.3,5.1,83,0.00,,,0.00,WUHU216HW,2013-01-18 13:25:00,
2013-01-18 07:26:00,28.8,24.3,30.39,SSE,158,3.8,5.1,83,0.00,,,0.00,WUHU216HW,2013-01-18 13:26:00,
2013-01-18 07:27:00,28.8,24.3,30.39,SSE,158,3.8,5.1,83,0.00,,,0.00,WUHU216HW,2013-01-18 13:27:00,
2013-01-18 07:28:00,28.8,24.6,30.39,South,180,4.0,5.1,84,0.00,,,0.00,WUHU216HW,2013-01-18 13:28:00,
2013-01-18 07:30:00,29.0,24.5,30.39,South,180,3.6,4.5,83,0.00,,,0.00,WUHU216HW,2013-01-18 13:30:00,
2013-01-18 07:33:00,29.2,24.7,30.39,South,180,3.4,4.5,83,0.00,,,0.00,WUHU216HW,2013-01-18 13:33:00,
2013-01-18 07:34:00,29.2,24.7,30.39,SSW,203,3.6,4.5,83,0.00,,,0.00,WUHU216HW,2013-01-18 13:34:00,
2013-01-18 07:38:00,29.3,24.9,30.39,SSW,203,3.6,4.5,83,0.00,,,0.00,WUHU216HW,2013-01-18 13:38:00,
2013-01-18 07:40:00,29.7,25.2,30.39,South,180,4.0,4.7,83,0.00,,,0.00,WUHU216HW,2013-01-18 13:40:00,
2013-01-18 07:43:00,29.9,25.4,30.39,South,180,1.8,4.7,83,0.00,,,0.00,WUHU216HW,2013-01-18 13:43:00,
2013-01-18 07:44:00,29.9,25.0,30.39,South,180,2.7,4.7,82,0.00,,,0.00,WUHU216HW,2013-01-18 13:44:00,
2013-01-18 07:46:00,30.1,25.2,30.39,SSW,203,3.1,4.7,82,0.00,,,0.00,WUHU216HW,2013-01-18 13:46:00,
2013-01-18 07:48:00,30.1,25.2,30.39,SSW,203,3.1,4.7,82,0.00,,,0.00,WUHU216HW,2013-01-18 13:48:00,
2013-01-18 07:50:00,30.4,25.3,30.39,South,180,4.0,4.5,81,0.00,,,0.00,WUHU216HW,2013-01-18 13:50:00,
2013-01-18 07:51:00,30.4,25.3,30.39,South,180,4.7,4.7,81,0.00,,,0.00,WUHU216HW,2013-01-18 13:51:00,
2013-01-18 07:53:00,30.6,25.5,30.39,South,180,3.8,4.7,81,0.00,,,0.00,WUHU216HW,2013-01-18 13:53:00,
2013-01-18 07:56:00,31.3,25.9,30.40,SW,225,6.0,6.0,80,0.00,,,0.00,WUHU216HW,2013-01-18 13:56:00,
2013-01-18 07:58:00,31.5,26.1,30.39,SSW,203,3.6,6.0,80,0.00,,,0.00,WUHU216HW,2013-01-18 13:58:00,
2013-01-18 08:00:00,32.0,26.3,30.40,SSW,203,3.6,6.0,79,0.00,,,0.00,WUHU216HW,2013-01-18 14:00:00,
2013-01-18 08:01:00,32.2,26.8,30.40,SSW,203,4.5,6.0,80,0.00,,,0.00,WUHU216HW,2013-01-18 14:01:00,
2013-01-18 08:03:00,32.6,26.8,30.40,SSW,203,2.7,6.0,79,0.00,,,0.00,WUHU216HW,2013-01-18 14:03:00,
2013-01-18 08:04:00,32.6,26.8,30.40,SSW,203,2.9,6.0,79,0.00,,,0.00,WUHU216HW,2013-01-18 14:04:00,
2013-01-18 08:06:00,32.8,26.6,30.40,SSW,203,3.6,6.0,78,0.00,,,0.00,WUHU216HW,2013-01-18 14:06:00,
2013-01-18 08:07:00,32.9,26.8,30.40,SSW,203,3.4,4.7,78,0.00,,,0.00,WUHU216HW,2013-01-18 14:07:00,
2013-01-18 08:08:00,32.9,26.8,30.40,SSW,203,3.4,4.7,78,0.00,,,0.00,WUHU216HW,2013-01-18 14:08:00,
2013-01-18 08:10:00,33.3,27.1,30.40,SSW,203,4.0,4.7,78,0.00,,,0.00,WUHU216HW,2013-01-18 14:10:00,
2013-01-18 08:11:00,33.3,27.1,30.40,SSW,203,3.4,4.7,78,0.00,,,0.00,WUHU216HW,2013-01-18 14:11:00,
2013-01-18 08:13:00,33.5,27.0,30.40,SSW,203,2.7,4.7,77,0.00,,,0.00,WUHU216HW,2013-01-18 14:13:00,
2013-01-18 08:14:00,33.5,27.0,30.40,SSW,203,2.7,4.7,77,0.00,,,0.00,WUHU216HW,2013-01-18 14:14:00,
2013-01-18 08:17:00,34.2,27.6,30.40,South,180,4.0,4.7,77,0.00,,,0.00,WUHU216HW,2013-01-18 14:17:00,
2013-01-18 08:19:00,34.2,27.6,30.40,South,180,1.8,4.7,77,0.00,,,0.00,WUHU216HW,2013-01-18 14:19:00,
2013-01-18 08:21:00,34.7,27.9,30.40,South,180,2.9,4.7,76,0.00,,,0.00,WUHU216HW,2013-01-18 14:21:00,
2013-01-18 08:22:00,34.9,28.1,30.40,South,180,2.5,4.0,76,0.00,,,0.00,WUHU216HW,2013-01-18 14:22:00,
2013-01-18 08:24:00,34.9,28.1,30.40,South,180,2.5,4.0,76,0.00,,,0.00,WUHU216HW,2013-01-18 14:24:00,
2013-01-18 08:25:00,35.3,28.1,30.40,South,180,5.1,5.1,75,0.00,,,0.00,WUHU216HW,2013-01-18 14:25:00,
2013-01-18 08:28:00,35.5,27.9,30.40,SSW,203,5.4,5.4,74,0.00,,,0.00,WUHU216HW,2013-01-18 14:28:00,
2013-01-18 08:29:00,35.5,27.9,30.40,SSW,203,5.4,5.4,74,0.00,,,0.00,WUHU216HW,2013-01-18 14:29:00,
2013-01-18 08:32:00,36.0,28.2,30.40,SSW,203,6.7,6.7,73,0.00,,,0.00,WUHU216HW,2013-01-18 14:32:00,
2013-01-18 08:34:00,36.2,28.4,30.40,South,180,5.4,6.7,73,0.00,,,0.00,WUHU216HW,2013-01-18 14:34:00,
2013-01-18 08:36:00,36.7,29.2,30.40,South,180,4.3,6.7,74,0.00,,,0.00,WUHU216HW,2013-01-18 14:36:00,
2013-01-18 08:38:00,37.1,29.5,30.40,SSW,203,5.4,6.7,74,0.00,,,0.00,WUHU216HW,2013-01-18 14:38:00,
2013-01-18 08:39:00,37.1,29.5,30.40,SSW,203,5.4,6.7,74,0.00,,,0.00,WUHU216HW,2013-01-18 14:39:00,
2013-01-18 08:40:00,37.4,29.6,30.40,South,180,5.4,6.7,73,0.00,,,0.00,WUHU216HW,2013-01-18 14:40:00,
2013-01-18 08:42:00,37.6,29.8,30.40,SSW,203,4.0,5.4,73,0.00,,,0.00,WUHU216HW,2013-01-18 14:42:00,
2013-01-18 08:43:00,37.8,29.3,30.40,South,180,5.4,5.4,71,0.00,,,0.00,WUHU216HW,2013-01-18 14:43:00,
2013-01-18 08:44:00,37.8,29.3,30.40,South,180,5.4,5.4,71,0.00,,,0.00,WUHU216HW,2013-01-18 14:44:00,
2013-01-18 08:48:00,38.5,30.0,30.40,SW,225,2.9,5.6,71,0.00,,,0.00,WUHU216HW,2013-01-18 14:48:00,
2013-01-18 08:49:00,38.5,30.0,30.40,SW,225,2.9,5.6,71,0.00,,,0.00,WUHU216HW,2013-01-18 14:49:00,
2013-01-18 08:50:00,38.7,29.3,30.40,SW,225,6.3,6.3,69,0.00,,,0.00,WUHU216HW,2013-01-18 14:50:00,
2013-01-18 08:53:00,39.2,29.5,30.41,SW,225,4.0,6.3,68,0.00,,,0.00,WUHU216HW,2013-01-18 14:53:00,
2013-01-18 08:54:00,39.2,29.5,30.41,SW,225,4.0,6.3,68,0.00,,,0.00,WUHU216HW,2013-01-18 14:54:00,
2013-01-18 08:58:00,39.8,29.6,30.41,South,180,6.3,6.3,67,0.00,,,0.00,WUHU216HW,2013-01-18 14:58:00,
2013-01-18 08:59:00,39.8,29.6,30.41,South,180,6.3,6.3,67,0.00,,,0.00,WUHU216HW,2013-01-18 14:59:00,
2013-01-18 09:01:00,40.0,29.8,30.41,SSW,203,6.9,6.9,67,0.00,,,0.00,WUHU216HW,2013-01-18 15:01:00,
2013-01-18 09:03:00,40.3,30.2,30.41,SSW,203,3.8,6.9,67,0.00,,,0.00,WUHU216HW,2013-01-18 15:03:00,
2013-01-18 09:04:00,40.3,30.2,30.41,SSW,203,3.8,6.9,67,0.00,,,0.00,WUHU216HW,2013-01-18 15:04:00,
2013-01-18 09:05:00,40.5,30.3,30.41,South,180,6.3,6.9,67,0.00,,,0.00,WUHU216HW,2013-01-18 15:05:00,
2013-01-18 09:08:00,40.9,30.3,30.41,SSW,203,6.9,6.9,66,0.00,,,0.00,WUHU216HW,2013-01-18 15:08:00,
2013-01-18 09:09:00,40.9,30.3,30.41,SSW,203,5.8,6.9,66,0.00,,,0.00,WUHU216HW,2013-01-18 15:09:00,
2013-01-18 09:10:00,41.0,30.5,30.41,SW,225,7.2,7.2,66,0.00,,,0.00,WUHU216HW,2013-01-18 15:10:00,
2013-01-18 09:11:00,41.2,30.3,30.41,SSW,203,8.3,8.3,65,0.00,,,0.00,WUHU216HW,2013-01-18 15:11:00,
2013-01-18 09:13:00,41.4,30.5,30.41,SSW,203,6.9,8.3,65,0.00,,,0.00,WUHU216HW,2013-01-18 15:13:00,
2013-01-18 09:14:00,41.4,30.5,30.41,SW,225,6.9,8.3,65,0.00,,,0.00,WUHU216HW,2013-01-18 15:14:00,
2013-01-18 09:15:00,41.6,30.2,30.41,SW,225,4.7,8.3,64,0.00,,,0.00,WUHU216HW,2013-01-18 15:15:00,
2013-01-18 09:17:00,41.8,30.4,30.41,SSW,203,6.3,8.5,64,0.00,,,0.00,WUHU216HW,2013-01-18 15:17:00,
2013-01-18 09:19:00,41.9,30.3,30.41,SSW,203,4.7,8.5,63,0.00,,,0.00,WUHU216HW,2013-01-18 15:19:00,
2013-01-18 09:20:00,41.9,30.3,30.41,SSW,203,4.7,8.5,63,0.00,,,0.00,WUHU216HW,2013-01-18 15:20:00,
2013-01-18 09:22:00,42.3,30.6,30.41,SSW,203,7.6,8.5,63,0.00,,,0.00,WUHU216HW,2013-01-18 15:22:00,
2013-01-18 09:24:00,42.5,31.2,30.41,SW,225,4.3,8.5,64,0.00,,,0.00,WUHU216HW,2013-01-18 15:24:00,
2013-01-18 09:25:00,42.5,31.2,30.41,SW,225,4.3,8.5,64,0.00,,,0.00,WUHU216HW,2013-01-18 15:25:00,
2013-01-18 09:26:00,42.8,31.1,30.41,SSW,203,7.2,8.5,63,0.00,,,0.00,WUHU216HW,2013-01-18 15:26:00,
2013-01-18 09:29:00,42.7,30.5,30.41,SSW,203,7.8,10.7,62,0.00,,,0.00,WUHU216HW,2013-01-18 15:29:00,
2013-01-18 09:30:00,42.7,30.5,30.41,SSW,203,7.8,10.7,62,0.00,,,0.00,WUHU216HW,2013-01-18 15:30:00,
2013-01-18 09:31:00,43.0,31.2,30.41,SSE,158,6.9,10.7,63,0.00,,,0.00,WUHU216HW,2013-01-18 15:31:00,
2013-01-18 09:33:00,43.4,30.8,30.41,SSW,203,8.1,10.7,61,0.00,,,0.00,WUHU216HW,2013-01-18 15:33:00,
2013-01-18 09:34:00,43.4,30.4,30.41,SW,225,9.2,10.7,60,0.00,,,0.00,WUHU216HW,2013-01-18 15:34:00,
2013-01-18 09:35:00,43.4,30.4,30.41,SW,225,9.2,10.7,60,0.00,,,0.00,WUHU216HW,2013-01-18 15:35:00,
2013-01-18 09:36:00,43.4,30.4,30.41,South,180,10.7,10.7,60,0.00,,,0.00,WUHU216HW,2013-01-18 15:36:00,
2013-01-18 09:38:00,43.6,31.0,30.41,South,180,8.5,10.7,61,0.00,,,0.00,WUHU216HW,2013-01-18 15:38:00,
2013-01-18 09:40:00,43.6,30.2,30.41,SSW,203,14.3,14.3,59,0.00,,,0.00,WUHU216HW,2013-01-18 15:40:00,
2013-01-18 09:44:00,43.6,30.6,30.41,SSW,203,7.8,14.3,60,0.00,,,0.00,WUHU216HW,2013-01-18 15:44:00,
2013-01-18 09:45:00,43.6,30.6,30.41,SSW,203,7.8,14.3,60,0.00,,,0.00,WUHU216HW,2013-01-18 15:45:00,
2013-01-18 09:46:00,43.9,31.0,30.41,SW,225,8.7,14.3,60,0.00,,,0.00,WUHU216HW,2013-01-18 15:46:00,
2013-01-18 09:50:00,44.3,30.9,30.41,South,180,7.6,11.9,59,0.00,,,0.00,WUHU216HW,2013-01-18 15:50:00,
2013-01-18 09:52:00,44.6,31.2,30.41,SSW,203,8.3,11.9,59,0.00,,,0.00,WUHU216HW,2013-01-18 15:52:00,
2013-01-18 09:54:00,45.0,31.2,30.41,SSW,203,8.5,11.9,58,0.00,,,0.00,WUHU216HW,2013-01-18 15:54:00,
2013-01-18 09:55:00,45.0,31.2,30.41,SSW,203,8.5,11.9,58,0.00,,,0.00,WUHU216HW,2013-01-18 15:55:00,
2013-01-18 09:56:00,45.2,30.8,30.41,WSW,248,10.7,11.9,57,0.00,,,0.00,WUHU216HW,2013-01-18 15:56:00,
2013-01-18 09:57:00,45.2,30.8,30.41,South,180,11.4,11.4,57,0.00,,,0.00,WUHU216HW,2013-01-18 15:57:00,
2013-01-18 09:59:00,45.2,30.8,30.41,SSW,203,7.6,11.4,57,0.00,,,0.00,WUHU216HW,2013-01-18 15:59:00,
2013-01-18 10:00:00,45.2,30.8,30.41,SSW,203,7.6,11.4,57,0.00,,,0.00,WUHU216HW,2013-01-18 16:00:00,
2013-01-18 10:02:00,45.2,30.8,30.41,SSW,203,6.5,11.4,57,0.00,,,0.00,WUHU216HW,2013-01-18 16:02:00,
2013-01-18 10:03:00,45.4,31.4,30.41,SW,225,8.1,11.4,58,0.00,,,0.00,WUHU216HW,2013-01-18 16:03:00,
2013-01-18 10:04:00,45.7,31.8,30.41,SSW,203,6.3,11.4,58,0.00,,,0.00,WUHU216HW,2013-01-18 16:04:00,
2013-01-18 10:05:00,45.7,31.8,30.41,SSW,203,6.3,11.4,58,0.00,,,0.00,WUHU216HW,2013-01-18 16:05:00,
2013-01-18 10:06:00,45.7,31.3,30.41,SSW,203,8.7,14.3,57,0.00,,,0.00,WUHU216HW,2013-01-18 16:06:00,
2013-01-18 10:08:00,46.1,31.6,30.41,SSW,203,5.1,14.3,57,0.00,,,0.00,WUHU216HW,2013-01-18 16:08:00,
2013-01-18 10:10:00,46.4,32.0,30.41,SW,225,6.9,14.3,57,0.00,,,0.00,WUHU216HW,2013-01-18 16:10:00,
2013-01-18 10:11:00,46.4,32.0,30.41,SW,225,6.9,14.3,57,0.00,,,0.00,WUHU216HW,2013-01-18 16:11:00,
2013-01-18 10:15:00,46.8,31.4,30.41,SSW,203,13.9,13.9,55,0.00,,,0.00,WUHU216HW,2013-01-18 16:15:00,
2013-01-18 10:16:00,46.8,31.4,30.41,SSW,203,13.9,13.9,55,0.00,,,0.00,WUHU216HW,2013-01-18 16:16:00,
2013-01-18 10:18:00,46.4,31.5,30.41,SSW,203,9.4,17.0,56,0.00,,,0.00,WUHU216HW,2013-01-18 16:18:00,
2013-01-18 10:19:00,46.4,31.5,30.41,South,180,11.6,17.0,56,0.00,,,0.00,WUHU216HW,2013-01-18 16:19:00,
2013-01-18 10:21:00,46.4,31.5,30.41,South,180,10.1,17.0,56,0.00,,,0.00,WUHU216HW,2013-01-18 16:21:00,
2013-01-18 10:23:00,46.6,31.7,30.41,SSW,203,8.7,17.0,56,0.00,,,0.00,WUHU216HW,2013-01-18 16:23:00,
2013-01-18 10:26:00,46.8,31.4,30.41,SSW,203,13.4,17.0,55,0.00,,,0.00,WUHU216HW,2013-01-18 16:26:00,
2013-01-18 10:27:00,47.0,31.6,30.41,SSW,203,17.4,17.4,55,0.00,,,0.00,WUHU216HW,2013-01-18 16:27:00,
2013-01-18 10:31:00,47.2,31.8,30.41,SW,225,11.9,17.4,55,0.00,,,0.00,WUHU216HW,2013-01-18 16:31:00,
2013-01-18 10:32:00,47.2,31.8,30.41,South,180,10.5,17.4,55,0.00,,,0.00,WUHU216HW,2013-01-18 16:32:00,
2013-01-18 10:33:00,47.5,32.0,30.41,WSW,248,9.2,17.4,55,0.00,,,0.00,WUHU216HW,2013-01-18 16:33:00,
2013-01-18 10:35:00,47.5,31.6,30.41,SW,225,13.2,17.4,54,0.00,,,0.00,WUHU216HW,2013-01-18 16:35:00,
2013-01-18 10:36:00,47.5,31.6,30.41,SW,225,13.2,17.4,54,0.00,,,0.00,WUHU216HW,2013-01-18 16:36:00,
2013-01-18 10:37:00,47.9,32.4,30.40,SSW,203,9.6,14.3,55,0.00,,,0.00,WUHU216HW,2013-01-18 16:37:00,
2013-01-18 10:38:00,48.1,32.1,30.40,South,180,13.2,14.3,54,0.00,,,0.00,WUHU216HW,2013-01-18 16:38:00,
2013-01-18 10:41:00,48.6,32.1,30.40,SSE,158,9.8,14.3,53,0.00,,,0.00,WUHU216HW,2013-01-18 16:41:00,
2013-01-18 10:42:00,48.6,31.7,30.40,SW,225,8.9,14.3,52,0.00,,,0.00,WUHU216HW,2013-01-18 16:42:00,
2013-01-18 10:44:00,48.6,31.7,30.40,South,180,11.4,13.2,52,0.00,,,0.00,WUHU216HW,2013-01-18 16:44:00,
2013-01-18 10:46:00,48.6,32.1,30.40,WSW,248,12.3,13.2,53,0.00,,,0.00,WUHU216HW,2013-01-18 16:46:00,
2013-01-18 10:48:00,48.8,31.9,30.39,SSW,203,17.4,17.4,52,0.00,,,0.00,WUHU216HW,2013-01-18 16:48:00,
2013-01-18 10:49:00,48.6,31.2,30.40,SSW,203,13.4,17.4,51,0.00,,,0.00,WUHU216HW,2013-01-18 16:49:00,
2013-01-18 10:51:00,48.8,31.9,30.40,SW,225,15.0,17.4,52,0.00,,,0.00,WUHU216HW,2013-01-18 16:51:00,
2013-01-18 10:52:00,48.8,31.4,30.39,SSW,203,15.0,17.4,51,0.00,,,0.00,WUHU216HW,2013-01-18 16:52:00,
2013-01-18 10:53:00,49.0,31.6,30.40,SSW,203,11.0,17.4,51,0.00,,,0.00,WUHU216HW,2013-01-18 16:53:00,
2013-01-18 10:54:00,49.1,31.8,30.39,SW,225,11.6,17.4,51,0.00,,,0.00,WUHU216HW,2013-01-18 16:54:00,
2013-01-18 10:56:00,49.3,32.4,30.40,WSW,248,7.6,17.4,52,0.00,,,0.00,WUHU216HW,2013-01-18 16:56:00,
2013-01-18 10:57:00,49.7,32.8,30.40,SSW,203,5.4,17.4,52,0.00,,,0.00,WUHU216HW,2013-01-18 16:57:00,
2013-01-18 10:59:00,50.4,32.6,30.39,SSW,203,6.9,15.0,50,0.00,,,0.00,WUHU216HW,2013-01-18 16:59:00,
2013-01-18 11:00:00,50.4,32.6,30.39,SSW,203,6.9,15.0,50,0.00,,,0.00,WUHU216HW,2013-01-18 17:00:00,
2013-01-18 11:02:00,50.4,32.6,30.39,SSW,203,6.9,15.0,50,0.00,,,0.00,WUHU216HW,2013-01-18 17:02:00,
2013-01-18 11:05:00,50.8,31.8,30.39,SW,225,13.6,13.6,48,0.00,,,0.00,WUHU216HW,2013-01-18 17:05:00,
2013-01-18 11:07:00,50.8,32.3,30.39,SSW,203,12.5,13.6,49,0.00,,,0.00,WUHU216HW,2013-01-18 17:07:00,
2013-01-18 11:08:00,50.6,32.1,30.39,SW,225,6.5,13.6,49,0.00,,,0.00,WUHU216HW,2013-01-18 17:08:00,
2013-01-18 11:10:00,50.9,32.5,30.39,SW,225,7.6,13.6,49,0.00,,,0.00,WUHU216HW,2013-01-18 17:10:00,
2013-01-18 11:11:00,50.9,32.5,30.39,SSW,203,10.5,13.6,49,0.00,,,0.00,WUHU216HW,2013-01-18 17:11:00,
2013-01-18 11:12:00,50.9,32.5,30.39,SSW,203,10.5,13.6,49,0.00,,,0.00,WUHU216HW,2013-01-18 17:12:00,
2013-01-18 11:17:00,50.8,31.8,30.38,SSW,203,11.4,15.9,48,0.00,,,0.00,WUHU216HW,2013-01-18 17:17:00,
2013-01-18 11:18:00,50.8,31.8,30.39,SSW,203,13.2,15.9,48,0.00,,,0.00,WUHU216HW,2013-01-18 17:18:00,
2013-01-18 11:19:00,50.6,31.6,30.39,SSW,203,10.1,15.9,48,0.00,,,0.00,WUHU216HW,2013-01-18 17:19:00,
2013-01-18 11:21:00,50.8,32.3,30.38,South,180,13.9,15.9,49,0.00,,,0.00,WUHU216HW,2013-01-18 17:21:00,
2013-01-18 11:22:00,50.8,32.3,30.38,South,180,13.9,15.9,49,0.00,,,0.00,WUHU216HW,2013-01-18 17:22:00,
2013-01-18 11:23:00,50.8,31.8,30.38,SW,225,11.9,14.8,48,0.00,,,0.00,WUHU216HW,2013-01-18 17:23:00,
2013-01-18 11:25:00,50.9,32.0,30.38,SSW,203,9.8,14.8,48,0.00,,,0.00,WUHU216HW,2013-01-18 17:25:00,
2013-01-18 11:27:00,51.3,32.8,30.38,SW,225,8.9,14.8,49,0.00,,,0.00,WUHU216HW,2013-01-18 17:27:00,
2013-01-18 11:28:00,51.8,32.1,30.38,SW,225,14.3,14.3,47,0.00,,,0.00,WUHU216HW,2013-01-18 17:28:00,
2013-01-18 11:29:00,51.7,32.1,30.38,SSW,203,8.7,14.3,47,0.00,,,0.00,WUHU216HW,2013-01-18 17:29:00,
2013-01-18 11:31:00,51.5,31.3,30.38,SW,225,7.2,14.3,46,0.00,,,0.00,WUHU216HW,2013-01-18 17:31:00,
2013-01-18 11:32:00,51.5,31.3,30.38,SW,225,7.2,14.3,46,0.00,,,0.00,WUHU216HW,2013-01-18 17:32:00,
2013-01-18 11:33:00,52.0,32.3,30.38,WSW,248,6.9,14.3,47,0.00,,,0.00,WUHU216HW,2013-01-18 17:33:00,
2013-01-18 11:35:00,52.4,32.1,30.38,WSW,248,10.5,14.3,46,0.00,,,0.00,WUHU216HW,2013-01-18 17:35:00,
2013-01-18 11:37:00,52.6,32.2,30.38,SW,225,8.5,14.3,46,0.00,,,0.00,WUHU216HW,2013-01-18 17:37:00,
2013-01-18 11:38:00,52.4,32.1,30.38,SW,225,5.6,10.5,46,0.00,,,0.00,WUHU216HW,2013-01-18 17:38:00,
2013-01-18 11:39:00,52.6,32.2,30.38,SSE,158,12.5,12.5,46,0.00,,,0.00,WUHU216HW,2013-01-18 17:39:00,
2013-01-18 11:42:00,52.7,32.4,30.38,WSW,248,15.7,15.7,46,0.00,,,0.00,WUHU216HW,2013-01-18 17:42:00,
2013-01-18 11:43:00,52.4,31.5,30.37,WSW,248,13.4,15.7,45,0.00,,,0.00,WUHU216HW,2013-01-18 17:43:00,
2013-01-18 11:44:00,52.4,31.5,30.37,SW,225,16.3,16.3,45,0.00,,,0.00,WUHU216HW,2013-01-18 17:44:00,
2013-01-18 11:45:00,52.2,32.0,30.37,SW,225,9.4,16.3,46,0.00,,,0.00,WUHU216HW,2013-01-18 17:45:00,
2013-01-18 11:47:00,52.6,32.2,30.37,SSW,203,7.6,16.3,46,0.00,,,0.00,WUHU216HW,2013-01-18 17:47:00,
2013-01-18 11:49:00,52.9,32.6,30.37,SSW,203,12.3,16.3,46,0.00,,,0.00,WUHU216HW,2013-01-18 17:49:00,
2013-01-18 11:52:00,52.4,31.5,30.36,SW,225,12.1,16.3,45,0.00,,,0.00,WUHU216HW,2013-01-18 17:52:00,
2013-01-18 11:54:00,52.6,32.2,30.36,South,180,11.0,14.5,46,0.00,,,0.00,WUHU216HW,2013-01-18 17:54:00,
2013-01-18 11:57:00,53.3,33.0,30.36,SSW,203,7.6,14.5,46,0.00,,,0.00,WUHU216HW,2013-01-18 17:57:00,
2013-01-18 11:58:00,53.3,33.0,30.36,SSW,203,7.6,14.5,46,0.00,,,0.00,WUHU216HW,2013-01-18 17:58:00,
2013-01-18 12:00:00,53.5,32.5,30.36,SW,225,8.3,14.5,45,0.00,,,0.00,WUHU216HW,2013-01-18 18:00:00,
2013-01-18 12:01:00,53.5,32.5,30.36,SSW,203,7.8,12.3,45,0.00,,,0.00,WUHU216HW,2013-01-18 18:01:00,
2013-01-18 12:03:00,53.5,32.5,30.36,SSW,203,12.8,12.8,45,0.00,,,0.00,WUHU216HW,2013-01-18 18:03:00,
2013-01-18 12:05:00,53.5,32.0,30.35,SSW,203,10.1,12.8,44,0.00,,,0.00,WUHU216HW,2013-01-18 18:05:00,
2013-01-18 12:06:00,53.6,32.7,30.35,WSW,248,7.6,12.8,45,0.00,,,0.00,WUHU216HW,2013-01-18 18:06:00,
2013-01-18 12:08:00,53.6,32.7,30.35,SW,225,8.9,12.8,45,0.00,,,0.00,WUHU216HW,2013-01-18 18:08:00,
2013-01-18 12:10:00,53.8,32.3,30.35,SW,225,10.5,13.2,44,0.00,,,0.00,WUHU216HW,2013-01-18 18:10:00,
2013-01-18 12:12:00,53.8,31.7,30.35,SW,225,11.4,13.6,43,0.00,,,0.00,WUHU216HW,2013-01-18 18:12:00,
2013-01-18 12:13:00,53.8,31.7,30.35,SW,225,11.4,13.6,43,0.00,,,0.00,WUHU216HW,2013-01-18 18:13:00,
2013-01-18 12:14:00,53.8,31.7,30.35,SW,225,11.9,13.6,43,0.00,,,0.00,WUHU216HW,2013-01-18 18:14:00,
2013-01-18 12:16:00,54.2,32.6,30.34,SSW,203,6.3,13.6,44,0.00,,,0.00,WUHU216HW,2013-01-18 18:16:00,
2013-01-18 12:18:00,54.4,32.2,30.34,WSW,248,11.6,13.6,43,0.00,,,0.00,WUHU216HW,2013-01-18 18:18:00,
2013-01-18 12:20:00,53.8,31.7,30.34,South,180,9.4,15.9,43,0.00,,,0.00,WUHU216HW,2013-01-18 18:20:00,
2013-01-18 12:22:00,54.0,31.9,30.34,South,180,7.8,15.9,43,0.00,,,0.00,WUHU216HW,2013-01-18 18:22:00,
2013-01-18 12:23:00,54.0,31.9,30.34,South,180,7.8,15.9,43,0.00,,,0.00,WUHU216HW,2013-01-18 18:23:00,
2013-01-18 12:24:00,54.4,32.8,30.34,South,180,15.9,15.9,44,0.00,,,0.00,WUHU216HW,2013-01-18 18:24:00,
2013-01-18 12:26:00,54.0,32.4,30.33,SSW,203,11.0,15.9,44,0.00,,,0.00,WUHU216HW,2013-01-18 18:26:00,
2013-01-18 12:28:00,54.2,32.6,30.33,WSW,248,12.8,15.9,44,0.00,,,0.00,WUHU216HW,2013-01-18 18:28:00,
2013-01-18 12:29:00,54.0,32.4,30.33,SSW,203,6.9,15.9,44,0.00,,,0.00,WUHU216HW,2013-01-18 18:29:00,
2013-01-18 12:30:00,54.2,32.0,30.33,SSW,203,8.1,15.9,43,0.00,,,0.00,WUHU216HW,2013-01-18 18:30:00,
2013-01-18 12:33:00,54.4,32.2,30.33,SSW,203,7.6,15.9,43,0.00,,,0.00,WUHU216HW,2013-01-18 18:33:00,
2013-01-18 12:36:00,54.4,32.2,30.33,South,180,13.2,13.2,43,0.00,,,0.00,WUHU216HW,2013-01-18 18:36:00,
2013-01-18 12:39:00,54.2,32.0,30.33,SSW,203,10.7,13.2,43,0.00,,,0.00,WUHU216HW,2013-01-18 18:39:00,
2013-01-18 12:40:00,54.2,31.5,30.33,SW,225,9.6,13.2,42,0.00,,,0.00,WUHU216HW,2013-01-18 18:40:00,
2013-01-18 12:42:00,54.4,31.7,30.32,SW,225,10.3,13.2,42,0.00,,,0.00,WUHU216HW,2013-01-18 18:42:00,
2013-01-18 12:43:00,54.5,32.4,30.33,SW,225,6.5,13.2,43,0.00,,,0.00,WUHU216HW,2013-01-18 18:43:00,
2013-01-18 12:44:00,54.5,32.4,30.33,SW,225,6.5,13.2,43,0.00,,,0.00,WUHU216HW,2013-01-18 18:44:00,
2013-01-18 12:45:00,55.1,32.9,30.32,WSW,248,8.3,13.2,43,0.00,,,0.00,WUHU216HW,2013-01-18 18:45:00,
2013-01-18 12:46:00,55.4,33.2,30.32,SW,225,7.6,10.7,43,0.00,,,0.00,WUHU216HW,2013-01-18 18:46:00,
2013-01-18 12:49:00,55.6,32.8,30.32,SSW,203,6.3,10.3,42,0.00,,,0.00,WUHU216HW,2013-01-18 18:49:00,
2013-01-18 12:51:00,55.1,32.9,30.31,South,180,13.2,15.7,43,0.00,,,0.00,WUHU216HW,2013-01-18 18:51:00,
2013-01-18 12:54:00,54.7,32.5,30.31,SSW,203,13.0,15.7,43,0.00,,,0.00,WUHU216HW,2013-01-18 18:54:00,
2013-01-18 12:55:00,54.9,32.7,30.32,SSE,158,9.8,15.7,43,0.00,,,0.00,WUHU216HW,2013-01-18 18:55:00,
2013-01-18 12:56:00,54.9,32.7,30.31,SW,225,11.6,15.7,43,0.00,,,0.00,WUHU216HW,2013-01-18 18:56:00,
2013-01-18 12:58:00,55.3,32.5,30.31,South,180,6.0,13.2,42,0.00,,,0.00,WUHU216HW,2013-01-18 18:58:00,
2013-01-18 12:59:00,55.3,32.5,30.31,South,180,6.0,13.2,42,0.00,,,0.00,WUHU216HW,2013-01-18 18:59:00,
2013-01-18 13:00:00,55.3,31.9,30.31,SSW,203,10.5,13.2,41,0.00,,,0.00,WUHU216HW,2013-01-18 19:00:00,
2013-01-18 13:02:00,55.3,33.0,30.31,South,180,7.4,13.0,43,0.00,,,0.00,WUHU216HW,2013-01-18 19:02:00,
2013-01-18 13:03:00,55.6,33.3,30.31,SSW,203,4.9,11.9,43,0.00,,,0.00,WUHU216HW,2013-01-18 19:03:00,
2013-01-18 13:04:00,55.6,33.3,30.31,SSW,203,4.9,11.9,43,0.00,,,0.00,WUHU216HW,2013-01-18 19:04:00,
2013-01-18 13:06:00,56.0,32.0,30.31,SW,225,13.4,13.4,40,0.00,,,0.00,WUHU216HW,2013-01-18 19:06:00,
2013-01-18 13:07:00,55.8,32.4,30.31,SW,225,8.7,13.4,41,0.00,,,0.00,WUHU216HW,2013-01-18 19:07:00,
2013-01-18 13:09:00,55.6,32.8,30.31,SSW,203,10.3,13.4,42,0.00,,,0.00,WUHU216HW,2013-01-18 19:09:00,
2013-01-18 13:10:00,55.8,32.9,30.31,SW,225,9.8,13.4,42,0.00,,,0.00,WUHU216HW,2013-01-18 19:10:00,
2013-01-18 13:14:00,56.5,33.0,30.31,SSW,203,10.3,13.4,41,0.00,,,0.00,WUHU216HW,2013-01-18 19:14:00,
2013-01-18 13:19:00,56.0,32.0,30.31,WSW,248,13.6,13.6,40,0.00,,,0.00,WUHU216HW,2013-01-18 19:19:00,
2013-01-18 13:21:00,56.5,32.5,30.30,SSW,203,8.5,13.6,40,0.00,,,0.00,WUHU216HW,2013-01-18 19:21:00,
2013-01-18 13:24:00,56.7,32.7,30.30,SSW,203,7.6,13.6,40,0.00,,,0.00,WUHU216HW,2013-01-18 19:24:00,
2013-01-18 13:25:00,56.7,33.8,30.30,South,180,9.4,13.6,42,0.00,,,0.00,WUHU216HW,2013-01-18 19:25:00,
2013-01-18 13:28:00,56.5,33.0,30.30,SSW,203,9.4,11.2,41,0.00,,,0.00,WUHU216HW,2013-01-18 19:28:00,
2013-01-18 13:29:00,56.5,31.8,30.30,SW,225,13.0,13.0,39,0.00,,,0.00,WUHU216HW,2013-01-18 19:29:00,
2013-01-18 13:30:00,56.5,33.0,30.30,SSW,203,9.4,11.2,41,0.00,,,0.00,WUHU216HW,2013-01-18 19:30:00,
2013-01-18 13:31:00,56.3,31.6,30.30,SW,225,8.1,13.0,39,0.00,,,0.00,WUHU216HW,2013-01-18 19:31:00,
2013-01-18 13:32:00,56.5,31.8,30.30,SW,225,7.2,13.0,39,0.00,,,0.00,WUHU216HW,2013-01-18 19:32:00,
2013-01-18 13:34:00,56.9,32.8,30.30,SW,225,6.3,13.0,40,0.00,,,0.00,WUHU216HW,2013-01-18 19:34:00,
2013-01-18 13:35:00,56.9,32.8,30.30,SW,225,6.3,13.0,40,0.00,,,0.00,WUHU216HW,2013-01-18 19:35:00,
2013-01-18 13:36:00,57.2,32.4,30.30,SSW,203,12.8,13.0,39,0.00,,,0.00,WUHU216HW,2013-01-18 19:36:00,
2013-01-18 13:38:00,56.9,32.1,30.30,SW,225,9.2,13.0,39,0.00,,,0.00,WUHU216HW,2013-01-18 19:38:00,
2013-01-18 13:39:00,56.9,32.8,30.30,SSW,203,11.4,12.8,40,0.00,,,0.00,WUHU216HW,2013-01-18 19:39:00,
2013-01-18 13:40:00,56.9,32.8,30.30,SSW,203,11.4,12.8,40,0.00,,,0.00,WUHU216HW,2013-01-18 19:40:00,
2013-01-18 13:43:00,56.7,32.0,30.29,South,180,11.0,13.9,39,0.00,,,0.00,WUHU216HW,2013-01-18 19:43:00,
2013-01-18 13:44:00,56.7,32.7,30.29,SW,225,8.1,13.9,40,0.00,,,0.00,WUHU216HW,2013-01-18 19:44:00,
2013-01-18 13:45:00,56.7,32.7,30.29,SW,225,8.1,13.9,40,0.00,,,0.00,WUHU216HW,2013-01-18 19:45:00,
2013-01-18 13:46:00,57.2,33.1,30.29,WSW,248,6.9,13.9,40,0.00,,,0.00,WUHU216HW,2013-01-18 19:46:00,
2013-01-18 13:47:00,57.4,33.3,30.29,SW,225,6.0,13.9,40,0.00,,,0.00,WUHU216HW,2013-01-18 19:47:00,
2013-01-18 13:49:00,58.0,33.0,30.29,SW,225,9.2,13.9,39,0.00,,,0.00,WUHU216HW,2013-01-18 19:49:00,
2013-01-18 13:50:00,58.0,33.0,30.29,SW,225,9.2,13.9,39,0.00,,,0.00,WUHU216HW,2013-01-18 19:50:00,
2013-01-18 13:51:00,58.0,32.4,30.29,South,180,7.4,11.4,38,0.00,,,0.00,WUHU216HW,2013-01-18 19:51:00,
2013-01-18 13:54:00,58.5,32.1,30.29,SSW,203,12.1,12.1,37,0.00,,,0.00,WUHU216HW,2013-01-18 19:54:00,
2013-01-18 13:55:00,58.5,32.1,30.29,SSW,203,12.1,12.1,37,0.00,,,0.00,WUHU216HW,2013-01-18 19:55:00,
2013-01-18 13:57:00,58.0,31.7,30.29,SSW,203,6.7,13.2,37,0.00,,,0.00,WUHU216HW,2013-01-18 19:57:00,
2013-01-18 14:00:00,58.0,29.5,30.29,SSW,203,14.3,14.8,34,0.00,,,0.00,WUHU216HW,2013-01-18 20:00:00,
2013-01-18 14:01:00,57.6,29.3,30.29,SW,225,9.8,14.8,34,0.00,,,0.00,WUHU216HW,2013-01-18 20:01:00,
2013-01-18 14:02:00,57.6,30.0,30.29,West,270,10.5,14.8,35,0.00,,,0.00,WUHU216HW,2013-01-18 20:02:00,
2013-01-18 14:04:00,57.8,29.4,30.29,SSW,203,12.8,14.8,34,0.00,,,0.00,WUHU216HW,2013-01-18 20:04:00,
2013-01-18 14:05:00,57.4,29.1,30.29,SW,225,11.4,14.8,34,0.00,,,0.00,WUHU216HW,2013-01-18 20:05:00,
2013-01-18 14:07:00,57.4,29.1,30.29,SSW,203,14.8,14.8,34,0.00,,,0.00,WUHU216HW,2013-01-18 20:07:00,
2013-01-18 14:09:00,57.2,29.6,30.29,SSW,203,9.8,14.8,35,0.00,,,0.00,WUHU216HW,2013-01-18 20:09:00,
2013-01-18 14:10:00,57.2,29.6,30.29,SSW,203,9.8,14.8,35,0.00,,,0.00,WUHU216HW,2013-01-18 20:10:00,
2013-01-18 14:13:00,57.2,29.6,30.28,SW,225,12.8,14.8,35,0.00,,,0.00,WUHU216HW,2013-01-18 20:13:00,
2013-01-18 14:15:00,57.2,30.3,30.28,SW,225,9.8,14.8,36,0.00,,,0.00,WUHU216HW,2013-01-18 20:15:00,
2013-01-18 14:16:00,57.2,30.3,30.28,SW,225,9.8,14.8,36,0.00,,,0.00,WUHU216HW,2013-01-18 20:16:00,
2013-01-18 14:17:00,57.6,30.6,30.28,SSW,203,7.8,13.4,36,0.00,,,0.00,WUHU216HW,2013-01-18 20:17:00,
2013-01-18 14:20:00,58.0,29.5,30.28,South,180,10.7,13.4,34,0.00,,,0.00,WUHU216HW,2013-01-18 20:20:00,
2013-01-18 14:21:00,58.0,29.5,30.28,South,180,10.7,13.4,34,0.00,,,0.00,WUHU216HW,2013-01-18 20:21:00,
2013-01-18 14:22:00,57.8,28.7,30.28,SSW,203,13.4,13.4,33,0.00,,,0.00,WUHU216HW,2013-01-18 20:22:00,
2013-01-18 14:24:00,57.4,29.1,30.28,SSW,203,10.7,13.4,34,0.00,,,0.00,WUHU216HW,2013-01-18 20:24:00,
2013-01-18 14:25:00,57.6,29.3,30.28,SSW,203,13.9,13.9,34,0.00,,,0.00,WUHU216HW,2013-01-18 20:25:00,
2013-01-18 14:26:00,57.6,29.3,30.28,SSW,203,13.9,13.9,34,0.00,,,0.00,WUHU216HW,2013-01-18 20:26:00,
2013-01-18 14:27:00,57.6,29.3,30.28,SSW,203,12.3,13.9,34,0.00,,,0.00,WUHU216HW,2013-01-18 20:27:00,
2013-01-18 14:28:00,57.4,29.8,30.28,SSW,203,9.2,13.9,35,0.00,,,0.00,WUHU216HW,2013-01-18 20:28:00,
2013-01-18 14:30:00,57.6,29.3,30.28,SSW,203,12.3,13.9,34,0.00,,,0.00,WUHU216HW,2013-01-18 20:30:00,
2013-01-18 14:31:00,57.6,29.3,30.28,SSW,203,12.3,13.9,34,0.00,,,0.00,WUHU216HW,2013-01-18 20:31:00,
2013-01-18 14:32:00,57.2,28.2,30.28,South,180,8.7,15.0,33,0.00,,,0.00,WUHU216HW,2013-01-18 20:32:00,
2013-01-18 14:34:00,57.2,28.9,30.28,SW,225,10.5,15.0,34,0.00,,,0.00,WUHU216HW,2013-01-18 20:34:00,
2013-01-18 14:36:00,57.2,28.2,30.28,South,180,13.9,15.0,33,0.00,,,0.00,WUHU216HW,2013-01-18 20:36:00,
2013-01-18 14:38:00,57.1,28.7,30.27,SSW,203,12.8,16.1,34,0.00,,,0.00,WUHU216HW,2013-01-18 20:38:00,
2013-01-18 14:41:00,56.9,28.6,30.27,SSW,203,10.1,16.1,34,0.00,,,0.00,WUHU216HW,2013-01-18 20:41:00,
2013-01-18 14:43:00,57.1,28.7,30.27,South,180,17.4,17.4,34,0.00,,,0.00,WUHU216HW,2013-01-18 20:43:00,
2013-01-18 14:46:00,56.9,28.6,30.27,SSW,203,11.4,17.4,34,0.00,,,0.00,WUHU216HW,2013-01-18 20:46:00,
2013-01-18 14:47:00,56.9,27.9,30.27,SSW,203,11.4,17.4,33,0.00,,,0.00,WUHU216HW,2013-01-18 20:47:00,
2013-01-18 14:48:00,57.1,28.7,30.27,WSW,248,9.6,17.4,34,0.00,,,0.00,WUHU216HW,2013-01-18 20:48:00,
2013-01-18 14:50:00,57.2,28.9,30.27,South,180,6.0,17.4,34,0.00,,,0.00,WUHU216HW,2013-01-18 20:50:00,
2013-01-18 14:51:00,57.2,28.9,30.27,South,180,6.0,17.4,34,0.00,,,0.00,WUHU216HW,2013-01-18 20:51:00,
2013-01-18 14:52:00,57.8,28.7,30.27,SSW,203,13.6,15.4,33,0.00,,,0.00,WUHU216HW,2013-01-18 20:52:00,
2013-01-18 14:54:00,57.4,28.4,30.27,SSW,203,8.7,13.6,33,0.00,,,0.00,WUHU216HW,2013-01-18 20:54:00,
2013-01-18 14:55:00,57.6,28.5,30.27,SW,225,9.6,13.6,33,0.00,,,0.00,WUHU216HW,2013-01-18 20:55:00,
2013-01-18 14:57:00,57.6,28.5,30.27,SW,225,9.6,13.6,33,0.00,,,0.00,WUHU216HW,2013-01-18 20:57:00,
2013-01-18 15:00:00,58.3,29.9,30.26,SSW,203,7.8,13.6,34,0.00,,,0.00,WUHU216HW,2013-01-18 21:00:00,
2013-01-18 15:02:00,58.5,30.1,30.26,SSW,203,6.9,13.6,34,0.00,,,0.00,WUHU216HW,2013-01-18 21:02:00,
2013-01-18 15:03:00,58.5,30.1,30.27,SW,225,9.8,10.3,34,0.00,,,0.00,WUHU216HW,2013-01-18 21:03:00,
2013-01-18 15:04:00,58.5,30.8,30.26,SW,225,6.0,10.3,35,0.00,,,0.00,WUHU216HW,2013-01-18 21:04:00,
2013-01-18 15:06:00,58.7,29.5,30.26,SW,225,12.1,12.1,33,0.00,,,0.00,WUHU216HW,2013-01-18 21:06:00,
2013-01-18 15:07:00,58.7,29.5,30.26,SW,225,12.1,12.1,33,0.00,,,0.00,WUHU216HW,2013-01-18 21:07:00,
2013-01-18 15:10:00,58.0,29.5,30.26,SSW,203,12.5,12.5,34,0.00,,,0.00,WUHU216HW,2013-01-18 21:10:00,
2013-01-18 15:12:00,58.0,29.5,30.26,SSW,203,12.5,12.5,34,0.00,,,0.00,WUHU216HW,2013-01-18 21:12:00,
2013-01-18 15:16:00,57.2,28.9,30.26,SSW,203,12.1,12.8,34,0.00,,,0.00,WUHU216HW,2013-01-18 21:16:00,
2013-01-18 15:17:00,57.2,28.9,30.26,SSW,203,12.1,12.8,34,0.00,,,0.00,WUHU216HW,2013-01-18 21:17:00,
2013-01-18 15:19:00,57.2,30.3,30.26,SSW,203,11.4,12.8,36,0.00,,,0.00,WUHU216HW,2013-01-18 21:19:00,
2013-01-18 15:21:00,57.2,30.3,30.26,WSW,248,9.2,12.8,36,0.00,,,0.00,WUHU216HW,2013-01-18 21:21:00,
2013-01-18 15:22:00,57.2,30.3,30.26,WSW,248,9.2,12.8,36,0.00,,,0.00,WUHU216HW,2013-01-18 21:22:00,
2013-01-18 15:25:00,57.6,30.6,30.26,WSW,248,5.8,12.1,36,0.00,,,0.00,WUHU216HW,2013-01-18 21:25:00,
2013-01-18 15:26:00,57.6,30.0,30.26,SSW,203,7.2,11.4,35,0.00,,,0.00,WUHU216HW,2013-01-18 21:26:00,
2013-01-18 15:27:00,57.6,30.0,30.26,SSW,203,7.2,11.4,35,0.00,,,0.00,WUHU216HW,2013-01-18 21:27:00,
2013-01-18 15:29:00,57.2,30.3,30.26,SSW,203,9.8,13.6,36,0.00,,,0.00,WUHU216HW,2013-01-18 21:29:00,
2013-01-18 15:30:00,57.2,30.3,30.26,SW,225,8.1,13.6,36,0.00,,,0.00,WUHU216HW,2013-01-18 21:30:00,
2013-01-18 15:32:00,57.2,31.1,30.25,SSE,158,8.7,13.6,37,0.00,,,0.00,WUHU216HW,2013-01-18 21:32:00,
2013-01-18 15:33:00,57.1,30.2,30.25,SSW,203,10.5,13.6,36,0.00,,,0.00,WUHU216HW,2013-01-18 21:33:00,
2013-01-18 15:36:00,56.9,30.7,30.25,SSW,203,10.7,13.6,37,0.00,,,0.00,WUHU216HW,2013-01-18 21:36:00,
2013-01-18 15:37:00,56.9,30.7,30.25,SSW,203,10.7,13.6,37,0.00,,,0.00,WUHU216HW,2013-01-18 21:37:00,
2013-01-18 15:38:00,56.5,30.3,30.25,SW,225,14.1,14.1,37,0.00,,,0.00,WUHU216HW,2013-01-18 21:38:00,
2013-01-18 15:39:00,56.3,30.3,30.25,South,180,11.4,14.1,37,0.00,,,0.00,WUHU216HW,2013-01-18 21:39:00,
2013-01-18 15:41:00,56.0,29.9,30.25,SSW,203,14.1,14.1,37,0.00,,,0.00,WUHU216HW,2013-01-18 21:41:00,
2013-01-18 15:42:00,56.0,29.9,30.25,SSW,203,14.1,14.1,37,0.00,,,0.00,WUHU216HW,2013-01-18 21:42:00,
2013-01-18 15:43:00,56.0,29.9,30.25,SSW,203,11.2,14.1,37,0.00,,,0.00,WUHU216HW,2013-01-18 21:43:00,
2013-01-18 15:44:00,56.2,30.8,30.25,SW,225,9.6,14.1,38,0.00,,,0.00,WUHU216HW,2013-01-18 21:44:00,
2013-01-18 15:47:00,56.2,30.1,30.25,WSW,248,8.9,14.1,37,0.00,,,0.00,WUHU216HW,2013-01-18 21:47:00,
2013-01-18 15:48:00,56.3,29.5,30.25,WSW,248,6.3,14.1,36,0.00,,,0.00,WUHU216HW,2013-01-18 21:48:00,
2013-01-18 15:49:00,56.5,30.3,30.25,South,180,7.8,14.1,37,0.00,,,0.00,WUHU216HW,2013-01-18 21:49:00,
2013-01-18 15:51:00,56.5,30.3,30.25,SSW,203,10.1,12.8,37,0.00,,,0.00,WUHU216HW,2013-01-18 21:51:00,
2013-01-18 15:52:00,56.5,30.3,30.25,SSW,203,10.1,12.8,37,0.00,,,0.00,WUHU216HW,2013-01-18 21:52:00,
2013-01-18 15:54:00,56.5,30.3,30.25,SSW,203,6.3,12.8,37,0.00,,,0.00,WUHU216HW,2013-01-18 21:54:00,
2013-01-18 15:56:00,56.7,29.8,30.25,SW,225,9.8,13.4,36,0.00,,,0.00,WUHU216HW,2013-01-18 21:56:00,
2013-01-18 15:57:00,56.7,29.8,30.25,SW,225,9.8,13.4,36,0.00,,,0.00,WUHU216HW,2013-01-18 21:57:00,
2013-01-18 15:59:00,56.3,29.5,30.25,SSW,203,9.8,13.4,36,0.00,,,0.00,WUHU216HW,2013-01-18 21:59:00,
2013-01-18 16:01:00,56.2,29.3,30.25,SSW,203,12.3,13.4,36,0.00,,,0.00,WUHU216HW,2013-01-18 22:01:00,
2013-01-18 16:02:00,56.0,29.9,30.25,SSW,203,11.6,13.4,37,0.00,,,0.00,WUHU216HW,2013-01-18 22:02:00,
2013-01-18 16:03:00,55.8,29.7,30.25,South,180,7.6,13.4,37,0.00,,,0.00,WUHU216HW,2013-01-18 22:03:00,
2013-01-18 16:05:00,55.8,29.0,30.25,SSW,203,15.9,15.9,36,0.00,,,0.00,WUHU216HW,2013-01-18 22:05:00,
2013-01-18 16:06:00,55.8,29.7,30.25,SW,225,9.2,15.9,37,0.00,,,0.00,WUHU216HW,2013-01-18 22:06:00,
2013-01-18 16:08:00,55.8,29.7,30.25,South,180,12.8,15.9,37,0.00,,,0.00,WUHU216HW,2013-01-18 22:08:00,
2013-01-18 16:09:00,55.6,29.5,30.25,SSW,203,10.7,15.9,37,0.00,,,0.00,WUHU216HW,2013-01-18 22:09:00,
2013-01-18 16:11:00,55.8,29.7,30.25,SW,225,7.8,15.9,37,0.00,,,0.00,WUHU216HW,2013-01-18 22:11:00,
2013-01-18 16:12:00,55.8,29.7,30.25,SW,225,7.6,15.9,37,0.00,,,0.00,WUHU216HW,2013-01-18 22:12:00,
2013-01-18 16:13:00,55.8,29.7,30.25,SW,225,7.6,15.9,37,0.00,,,0.00,WUHU216HW,2013-01-18 22:13:00,
2013-01-18 16:15:00,56.0,29.9,30.25,SSW,203,9.2,12.8,37,0.00,,,0.00,WUHU216HW,2013-01-18 22:15:00,
2013-01-18 16:17:00,56.0,29.9,30.25,SSW,203,8.5,10.7,37,0.00,,,0.00,WUHU216HW,2013-01-18 22:17:00,
2013-01-18 16:18:00,56.0,29.9,30.25,SSW,203,8.5,10.7,37,0.00,,,0.00,WUHU216HW,2013-01-18 22:18:00,
2013-01-18 16:19:00,55.8,29.7,30.25,SSW,203,9.8,9.8,37,0.00,,,0.00,WUHU216HW,2013-01-18 22:19:00,
2013-01-18 16:20:00,55.8,29.7,30.25,SSW,203,10.5,10.5,37,0.00,,,0.00,WUHU216HW,2013-01-18 22:20:00,
2013-01-18 16:21:00,55.6,29.5,30.25,South,180,11.2,11.2,37,0.00,,,0.00,WUHU216HW,2013-01-18 22:21:00,
2013-01-18 16:23:00,55.1,29.8,30.25,SSW,203,10.1,13.0,38,0.00,,,0.00,WUHU216HW,2013-01-18 22:23:00,
2013-01-18 16:25:00,54.9,29.6,30.25,South,180,11.6,13.0,38,0.00,,,0.00,WUHU216HW,2013-01-18 22:25:00,
2013-01-18 16:26:00,54.9,29.6,30.25,South,180,12.5,13.0,38,0.00,,,0.00,WUHU216HW,2013-01-18 22:26:00,
2013-01-18 16:28:00,54.5,29.4,30.24,SSW,203,11.4,13.0,38,0.00,,,0.00,WUHU216HW,2013-01-18 22:28:00,
2013-01-18 16:31:00,54.4,29.9,30.25,South,180,11.2,15.9,39,0.00,,,0.00,WUHU216HW,2013-01-18 22:31:00,
2013-01-18 16:32:00,54.4,29.2,30.24,SSW,203,9.2,15.9,38,0.00,,,0.00,WUHU216HW,2013-01-18 22:32:00,
2013-01-18 16:33:00,54.4,29.2,30.24,SSW,203,9.2,15.9,38,0.00,,,0.00,WUHU216HW,2013-01-18 22:33:00,
2013-01-18 16:34:00,54.4,29.9,30.24,SW,225,9.2,15.9,39,0.00,,,0.00,WUHU216HW,2013-01-18 22:34:00,
2013-01-18 16:36:00,54.4,29.9,30.24,SSW,203,9.2,15.9,39,0.00,,,0.00,WUHU216HW,2013-01-18 22:36:00,
2013-01-18 16:38:00,54.5,30.0,30.24,SSW,203,7.2,15.9,39,0.00,,,0.00,WUHU216HW,2013-01-18 22:38:00,
2013-01-18 16:40:00,54.5,30.0,30.24,SSW,203,13.4,14.3,39,0.00,,,0.00,WUHU216HW,2013-01-18 22:40:00,
2013-01-18 16:41:00,54.4,29.9,30.24,SSW,203,12.5,14.5,39,0.00,,,0.00,WUHU216HW,2013-01-18 22:41:00,
2013-01-18 16:42:00,54.2,30.3,30.24,South,180,7.8,14.5,40,0.00,,,0.00,WUHU216HW,2013-01-18 22:42:00,
2013-01-18 16:43:00,54.2,30.3,30.24,South,180,7.8,14.5,40,0.00,,,0.00,WUHU216HW,2013-01-18 22:43:00,
2013-01-18 16:44:00,54.0,29.5,30.24,SW,225,12.8,14.5,39,0.00,,,0.00,WUHU216HW,2013-01-18 22:44:00,
2013-01-18 16:45:00,54.0,29.5,30.24,SSW,203,9.2,14.5,39,0.00,,,0.00,WUHU216HW,2013-01-18 22:45:00,
2013-01-18 16:48:00,53.6,29.9,30.24,SW,225,11.9,14.5,40,0.00,,,0.00,WUHU216HW,2013-01-18 22:48:00,
2013-01-18 16:52:00,53.3,30.2,30.24,SSW,203,10.1,14.3,41,0.00,,,0.00,WUHU216HW,2013-01-18 22:52:00,
2013-01-18 16:53:00,53.3,30.2,30.24,SSW,203,10.1,14.3,41,0.00,,,0.00,WUHU216HW,2013-01-18 22:53:00,
2013-01-18 16:54:00,53.1,30.0,30.24,SSW,203,9.8,14.3,41,0.00,,,0.00,WUHU216HW,2013-01-18 22:54:00,
2013-01-18 16:55:00,53.1,30.0,30.24,South,180,9.6,14.3,41,0.00,,,0.00,WUHU216HW,2013-01-18 22:55:00,
2013-01-18 16:57:00,52.9,29.8,30.24,South,180,11.0,13.9,41,0.00,,,0.00,WUHU216HW,2013-01-18 22:57:00,
2013-01-18 16:58:00,52.9,29.8,30.24,South,180,9.8,12.1,41,0.00,,,0.00,WUHU216HW,2013-01-18 22:58:00,
2013-01-18 16:59:00,52.9,29.8,30.24,South,180,9.8,12.1,41,0.00,,,0.00,WUHU216HW,2013-01-18 22:59:00,
2013-01-18 17:01:00,52.9,30.3,30.24,SSW,203,9.8,11.6,42,0.00,,,0.00,WUHU216HW,2013-01-18 23:01:00,
2013-01-18 17:04:00,52.6,30.1,30.24,SSW,203,8.5,11.0,42,0.00,,,0.00,WUHU216HW,2013-01-18 23:04:00,
2013-01-18 17:05:00,52.6,30.6,30.24,South,180,5.8,11.0,43,0.00,,,0.00,WUHU216HW,2013-01-18 23:05:00,
2013-01-18 17:07:00,52.2,29.7,30.24,SSW,203,9.2,11.0,42,0.00,,,0.00,WUHU216HW,2013-01-18 23:07:00,
2013-01-18 17:08:00,52.2,29.7,30.24,South,180,5.6,10.5,42,0.00,,,0.00,WUHU216HW,2013-01-18 23:08:00,
2013-01-18 17:09:00,52.2,29.7,30.24,South,180,5.6,10.5,42,0.00,,,0.00,WUHU216HW,2013-01-18 23:09:00,
2013-01-18 17:10:00,51.8,30.0,30.24,SSW,203,8.7,10.5,43,0.00,,,0.00,WUHU216HW,2013-01-18 23:10:00,
2013-01-18 17:12:00,51.7,29.8,30.24,SSW,203,4.5,10.5,43,0.00,,,0.00,WUHU216HW,2013-01-18 23:12:00,
2013-01-18 17:14:00,51.5,29.6,30.24,South,180,9.2,10.5,43,0.00,,,0.00,WUHU216HW,2013-01-18 23:14:00,
2013-01-18 17:15:00,51.5,29.6,30.24,SW,225,8.5,10.5,43,0.00,,,0.00,WUHU216HW,2013-01-18 23:15:00,
2013-01-18 17:17:00,51.1,29.9,30.24,SSW,203,7.8,10.5,44,0.00,,,0.00,WUHU216HW,2013-01-18 23:17:00,
2013-01-18 17:18:00,50.8,29.5,30.24,SW,225,7.8,10.1,44,0.00,,,0.00,WUHU216HW,2013-01-18 23:18:00,
2013-01-18 17:19:00,50.8,29.5,30.24,SW,225,7.8,10.1,44,0.00,,,0.00,WUHU216HW,2013-01-18 23:19:00,
2013-01-18 17:21:00,50.4,29.8,30.24,SSW,203,7.6,10.1,45,0.00,,,0.00,WUHU216HW,2013-01-18 23:21:00,
2013-01-18 17:22:00,50.0,29.4,30.24,SSW,203,7.8,10.1,45,0.00,,,0.00,WUHU216HW,2013-01-18 23:22:00,
2013-01-18 17:24:00,50.0,29.4,30.24,SSW,203,8.1,9.8,45,0.00,,,0.00,WUHU216HW,2013-01-18 23:24:00,
2013-01-18 17:29:00,49.3,29.4,30.24,South,180,6.3,9.8,46,0.00,,,0.00,WUHU216HW,2013-01-18 23:29:00,
2013-01-18 17:30:00,49.3,29.9,30.24,SSW,203,7.6,9.8,47,0.00,,,0.00,WUHU216HW,2013-01-18 23:30:00,
2013-01-18 17:31:00,49.3,29.9,30.24,SSW,203,5.1,9.8,47,0.00,,,0.00,WUHU216HW,2013-01-18 23:31:00,
2013-01-18 17:34:00,49.0,29.5,30.23,SSW,203,9.8,9.8,47,0.00,,,0.00,WUHU216HW,2013-01-18 23:34:00,
2013-01-18 17:35:00,48.8,29.9,30.23,South,180,7.2,9.8,48,0.00,,,0.00,WUHU216HW,2013-01-18 23:35:00,
2013-01-18 17:37:00,48.6,30.3,30.23,SSW,203,6.0,9.8,49,0.00,,,0.00,WUHU216HW,2013-01-18 23:37:00,
2013-01-18 17:39:00,48.2,29.9,30.23,WSW,248,7.8,9.8,49,0.00,,,0.00,WUHU216HW,2013-01-18 23:39:00,
2013-01-18 17:40:00,48.2,29.9,30.23,South,180,8.1,10.5,49,0.00,,,0.00,WUHU216HW,2013-01-18 23:40:00,
2013-01-18 17:41:00,48.2,29.9,30.23,SSW,203,5.4,10.5,49,0.00,,,0.00,WUHU216HW,2013-01-18 23:41:00,
2013-01-18 17:43:00,48.2,29.9,30.23,South,180,6.9,10.5,49,0.00,,,0.00,WUHU216HW,2013-01-18 23:43:00,
2013-01-18 17:44:00,48.2,30.4,30.23,SSW,203,6.5,10.5,50,0.00,,,0.00,WUHU216HW,2013-01-18 23:44:00,
2013-01-18 17:45:00,48.1,30.2,30.23,SSW,203,8.9,10.5,50,0.00,,,0.00,WUHU216HW,2013-01-18 23:45:00,
2013-01-18 17:48:00,47.9,30.1,30.23,South,180,6.3,10.5,50,0.00,,,0.00,WUHU216HW,2013-01-18 23:48:00,
2013-01-18 17:49:00,47.7,30.0,30.23,South,180,6.5,10.1,50,0.00,,,0.00,WUHU216HW,2013-01-18 23:49:00,
2013-01-18 17:50:00,47.7,30.0,30.23,South,180,6.5,10.1,50,0.00,,,0.00,WUHU216HW,2013-01-18 23:50:00,
2013-01-18 17:51:00,47.5,30.3,30.23,South,180,7.2,8.9,51,0.00,,,0.00,WUHU216HW,2013-01-18 23:51:00,
2013-01-18 17:55:00,47.2,29.9,30.23,SSW,203,8.7,9.2,51,0.00,,,0.00,WUHU216HW,2013-01-18 23:55:00,
2013-01-18 17:56:00,47.2,29.9,30.23,South,180,6.9,9.2,51,0.00,,,0.00,WUHU216HW,2013-01-18 23:56:00,
2013-01-18 17:58:00,47.2,30.3,30.23,South,180,7.2,9.2,52,0.00,,,0.00,WUHU216HW,2013-01-18 23:58:00,
2013-01-18 17:59:00,47.2,30.3,30.23,South,180,7.4,9.2,52,0.00,,,0.00,WUHU216HW,2013-01-18 23:59:00,
2013-01-18 18:00:00,47.2,30.3,30.23,South,180,7.4,9.2,52,0.00,,,0.00,WUHU216HW,2013-01-19 00:00:00,
2013-01-18 18:02:00,47.0,30.3,30.23,South,180,8.3,9.2,52,0.00,,,0.00,WUHU216HW,2013-01-19 00:02:00,
2013-01-18 18:03:00,47.0,30.3,30.22,South,180,8.9,9.2,52,0.00,,,0.00,WUHU216HW,2013-01-19 00:03:00,
2013-01-18 18:05:00,46.8,30.1,30.23,South,180,8.3,9.2,52,0.00,,,0.00,WUHU216HW,2013-01-19 00:05:00,
2013-01-18 18:07:00,46.8,30.1,30.23,South,180,6.3,9.2,52,0.00,,,0.00,WUHU216HW,2013-01-19 00:07:00,
2013-01-18 18:10:00,46.6,29.9,30.22,South,180,8.9,9.2,52,0.00,,,0.00,WUHU216HW,2013-01-19 00:10:00,
2013-01-18 18:11:00,46.8,30.1,30.22,South,180,11.0,11.0,52,0.00,,,0.00,WUHU216HW,2013-01-19 00:11:00,
2013-01-18 18:13:00,46.8,30.1,30.22,South,180,7.6,11.0,52,0.00,,,0.00,WUHU216HW,2013-01-19 00:13:00,
2013-01-18 18:15:00,46.8,30.1,30.22,South,180,9.2,11.0,52,0.00,,,0.00,WUHU216HW,2013-01-19 00:15:00,
2013-01-18 18:17:00,46.8,30.1,30.22,SSW,203,6.7,11.0,52,0.00,,,0.00,WUHU216HW,2013-01-19 00:17:00,
2013-01-18 18:18:00,46.8,30.1,30.22,SSW,203,7.6,11.0,52,0.00,,,0.00,WUHU216HW,2013-01-19 00:18:00,
2013-01-18 18:20:00,46.6,29.9,30.22,SSE,158,8.3,11.0,52,0.00,,,0.00,WUHU216HW,2013-01-19 00:20:00,
2013-01-18 18:23:00,46.6,29.9,30.22,South,180,6.9,9.8,52,0.00,,,0.00,WUHU216HW,2013-01-19 00:23:00,
2013-01-18 18:24:00,46.8,30.1,30.22,South,180,6.7,9.8,52,0.00,,,0.00,WUHU216HW,2013-01-19 00:24:00,
2013-01-18 18:25:00,46.6,29.9,30.22,South,180,6.3,9.8,52,0.00,,,0.00,WUHU216HW,2013-01-19 00:25:00,
2013-01-18 18:26:00,46.6,29.9,30.22,South,180,6.3,9.8,52,0.00,,,0.00,WUHU216HW,2013-01-19 00:26:00,
2013-01-18 18:27:00,46.4,29.7,30.22,South,180,7.2,9.6,52,0.00,,,0.00,WUHU216HW,2013-01-19 00:27:00,
2013-01-18 18:30:00,46.4,30.2,30.22,SSW,203,6.3,9.6,53,0.00,,,0.00,WUHU216HW,2013-01-19 00:30:00,
2013-01-18 18:31:00,46.3,30.0,30.22,SSW,203,8.1,9.6,53,0.00,,,0.00,WUHU216HW,2013-01-19 00:31:00,
2013-01-18 18:32:00,46.1,29.8,30.22,SSW,203,8.3,8.9,53,0.00,,,0.00,WUHU216HW,2013-01-19 00:32:00,
2013-01-18 18:34:00,46.1,29.8,30.22,SSW,203,7.6,8.9,53,0.00,,,0.00,WUHU216HW,2013-01-19 00:34:00,
2013-01-18 18:35:00,45.9,30.2,30.22,South,180,7.2,8.9,54,0.00,,,0.00,WUHU216HW,2013-01-19 00:35:00,
2013-01-18 18:36:00,45.9,30.2,30.22,South,180,7.2,8.9,54,0.00,,,0.00,WUHU216HW,2013-01-19 00:36:00,
2013-01-18 18:40:00,45.7,30.0,30.22,South,180,6.3,8.3,54,0.00,,,0.00,WUHU216HW,2013-01-19 00:40:00,
2013-01-18 18:41:00,45.7,30.0,30.22,South,180,6.3,8.3,54,0.00,,,0.00,WUHU216HW,2013-01-19 00:41:00,
2013-01-18 18:43:00,45.5,29.8,30.21,South,180,8.5,9.2,54,0.00,,,0.00,WUHU216HW,2013-01-19 00:43:00,
2013-01-18 18:46:00,45.5,29.8,30.21,South,180,7.4,9.8,54,0.00,,,0.00,WUHU216HW,2013-01-19 00:46:00,
2013-01-18 18:47:00,45.7,30.0,30.21,SW,225,7.6,10.5,54,0.00,,,0.00,WUHU216HW,2013-01-19 00:47:00,
2013-01-18 18:49:00,45.7,30.0,30.21,South,180,7.6,10.5,54,0.00,,,0.00,WUHU216HW,2013-01-19 00:49:00,
2013-01-18 18:51:00,45.7,30.0,30.22,South,180,8.1,10.5,54,0.00,,,0.00,WUHU216HW,2013-01-19 00:51:00,
2013-01-18 18:53:00,45.7,30.0,30.21,SSW,203,7.6,10.5,54,0.00,,,0.00,WUHU216HW,2013-01-19 00:53:00,
2013-01-18 18:55:00,45.7,30.0,30.21,South,180,7.6,10.5,54,0.00,,,0.00,WUHU216HW,2013-01-19 00:55:00,
2013-01-18 18:56:00,45.7,30.0,30.21,South,180,7.6,10.5,54,0.00,,,0.00,WUHU216HW,2013-01-19 00:56:00,
2013-01-18 18:57:00,45.5,29.8,30.21,South,180,6.9,9.2,54,0.00,,,0.00,WUHU216HW,2013-01-19 00:57:00,
2013-01-18 19:00:00,45.7,30.0,30.21,SSW,203,6.9,10.3,54,0.00,,,0.00,WUHU216HW,2013-01-19 01:00:00,
2013-01-18 19:01:00,45.7,30.0,30.21,SSW,203,6.9,10.3,54,0.00,,,0.00,WUHU216HW,2013-01-19 01:01:00,
2013-01-18 19:02:00,45.7,30.0,30.21,SSW,203,8.5,10.3,54,0.00,,,0.00,WUHU216HW,2013-01-19 01:02:00,
2013-01-18 19:03:00,45.7,30.0,30.21,SSW,203,6.0,10.3,54,0.00,,,0.00,WUHU216HW,2013-01-19 01:03:00,
2013-01-18 19:06:00,45.7,30.0,30.22,South,180,4.9,10.3,54,0.00,,,0.00,WUHU216HW,2013-01-19 01:06:00,
2013-01-18 19:09:00,45.5,29.8,30.22,SSW,203,6.5,10.3,54,0.00,,,0.00,WUHU216HW,2013-01-19 01:09:00,
2013-01-18 19:10:00,45.5,29.8,30.22,SSW,203,8.5,8.9,54,0.00,,,0.00,WUHU216HW,2013-01-19 01:10:00,
2013-01-18 19:11:00,45.5,29.8,30.22,SSW,203,8.5,8.9,54,0.00,,,0.00,WUHU216HW,2013-01-19 01:11:00,
2013-01-18 19:12:00,45.5,29.8,30.22,South,180,4.9,8.7,54,0.00,,,0.00,WUHU216HW,2013-01-19 01:12:00,
2013-01-18 19:14:00,45.5,29.8,30.22,SW,225,6.0,8.5,54,0.00,,,0.00,WUHU216HW,2013-01-19 01:14:00,
2013-01-18 19:16:00,45.7,30.0,30.22,SSW,203,5.4,8.5,54,0.00,,,0.00,WUHU216HW,2013-01-19 01:16:00,
2013-01-18 19:17:00,45.5,29.8,30.22,SSW,203,5.6,8.5,54,0.00,,,0.00,WUHU216HW,2013-01-19 01:17:00,
2013-01-18 19:19:00,45.5,29.8,30.22,SSW,203,4.9,8.5,54,0.00,,,0.00,WUHU216HW,2013-01-19 01:19:00,
2013-01-18 19:20:00,45.4,29.6,30.22,SSW,203,6.3,8.5,54,0.00,,,0.00,WUHU216HW,2013-01-19 01:20:00,
2013-01-18 19:21:00,45.4,29.6,30.22,SSW,203,6.5,8.1,54,0.00,,,0.00,WUHU216HW,2013-01-19 01:21:00,
2013-01-18 19:23:00,45.4,29.6,30.22,SSW,203,6.3,8.1,54,0.00,,,0.00,WUHU216HW,2013-01-19 01:23:00,
2013-01-18 19:25:00,45.4,29.6,30.22,SSW,203,5.8,8.3,54,0.00,,,0.00,WUHU216HW,2013-01-19 01:25:00,
2013-01-18 19:26:00,45.4,29.6,30.22,SSW,203,5.8,8.3,54,0.00,,,0.00,WUHU216HW,2013-01-19 01:26:00,
2013-01-18 19:27:00,45.2,29.4,30.22,South,180,6.7,8.3,54,0.00,,,0.00,WUHU216HW,2013-01-19 01:27:00,
2013-01-18 19:31:00,45.0,29.4,30.22,SSW,203,6.3,10.5,54,0.00,,,0.00,WUHU216HW,2013-01-19 01:31:00,
2013-01-18 19:33:00,44.8,29.6,30.22,South,180,6.9,10.5,55,0.00,,,0.00,WUHU216HW,2013-01-19 01:33:00,
2013-01-18 19:35:00,44.8,29.2,30.22,South,180,7.8,10.5,54,0.00,,,0.00,WUHU216HW,2013-01-19 01:35:00,
2013-01-18 19:37:00,44.8,29.2,30.21,SSW,203,7.2,10.5,54,0.00,,,0.00,WUHU216HW,2013-01-19 01:37:00,
2013-01-18 19:39:00,44.8,29.6,30.21,SSW,203,5.6,10.5,55,0.00,,,0.00,WUHU216HW,2013-01-19 01:39:00,
2013-01-18 19:41:00,44.8,28.7,30.21,South,180,6.9,10.5,53,0.00,,,0.00,WUHU216HW,2013-01-19 01:41:00,
2013-01-18 19:42:00,44.8,28.7,30.21,South,180,6.9,10.5,53,0.00,,,0.00,WUHU216HW,2013-01-19 01:42:00,
2013-01-18 19:43:00,44.8,28.7,30.21,South,180,5.6,10.5,53,0.00,,,0.00,WUHU216HW,2013-01-19 01:43:00,
2013-01-18 19:45:00,45.0,29.4,30.21,SSW,203,7.6,10.5,54,0.00,,,0.00,WUHU216HW,2013-01-19 01:45:00,
2013-01-18 19:47:00,45.0,28.9,30.21,SSW,203,6.3,10.5,53,0.00,,,0.00,WUHU216HW,2013-01-19 01:47:00,
2013-01-18 19:49:00,45.0,28.9,30.21,SSW,203,7.8,9.2,53,0.00,,,0.00,WUHU216HW,2013-01-19 01:49:00,
2013-01-18 19:52:00,45.0,28.9,30.21,SSW,203,6.5,9.2,53,0.00,,,0.00,WUHU216HW,2013-01-19 01:52:00,
2013-01-18 19:53:00,45.0,28.9,30.21,SSE,158,7.4,9.2,53,0.00,,,0.00,WUHU216HW,2013-01-19 01:53:00,
2013-01-18 19:55:00,45.0,28.9,30.21,SSW,203,5.6,8.5,53,0.00,,,0.00,WUHU216HW,2013-01-19 01:55:00,
2013-01-18 19:56:00,45.2,29.0,30.21,South,180,4.5,8.5,53,0.00,,,0.00,WUHU216HW,2013-01-19 01:56:00,
2013-01-18 19:57:00,45.2,29.0,30.21,South,180,4.5,8.5,53,0.00,,,0.00,WUHU216HW,2013-01-19 01:57:00,
2013-01-18 19:59:00,45.0,28.9,30.21,SSW,203,4.3,8.7,53,0.00,,,0.00,WUHU216HW,2013-01-19 01:59:00,
2013-01-18 20:00:00,45.0,28.9,30.21,South,180,4.3,8.7,53,0.00,,,0.00,WUHU216HW,2013-01-19 02:00:00,
2013-01-18 20:02:00,44.8,28.7,30.21,SSW,203,6.3,8.7,53,0.00,,,0.00,WUHU216HW,2013-01-19 02:02:00,
2013-01-18 20:03:00,44.6,28.5,30.21,SSW,203,6.0,8.7,53,0.00,,,0.00,WUHU216HW,2013-01-19 02:03:00,
2013-01-18 20:04:00,44.6,28.5,30.21,SSW,203,7.2,8.7,53,0.00,,,0.00,WUHU216HW,2013-01-19 02:04:00,
2013-01-18 20:07:00,44.6,28.5,30.21,SW,225,7.2,9.2,53,0.00,,,0.00,WUHU216HW,2013-01-19 02:07:00,
2013-01-18 20:09:00,44.6,28.5,30.21,SW,225,8.7,10.7,53,0.00,,,0.00,WUHU216HW,2013-01-19 02:09:00,
2013-01-18 20:12:00,44.8,28.7,30.21,SSW,203,6.9,10.7,53,0.00,,,0.00,WUHU216HW,2013-01-19 02:12:00,
2013-01-18 20:13:00,44.8,28.7,30.21,SSW,203,7.2,10.7,53,0.00,,,0.00,WUHU216HW,2013-01-19 02:13:00,
2013-01-18 20:15:00,44.8,28.7,30.21,SSW,203,6.7,10.7,53,0.00,,,0.00,WUHU216HW,2013-01-19 02:15:00,
2013-01-18 20:17:00,44.6,28.5,30.21,SSE,158,7.6,10.7,53,0.00,,,0.00,WUHU216HW,2013-01-19 02:17:00,
2013-01-18 20:19:00,44.6,28.5,30.20,SW,225,7.2,10.3,53,0.00,,,0.00,WUHU216HW,2013-01-19 02:19:00,
2013-01-18 20:21:00,44.8,28.3,30.20,SSW,203,9.6,13.4,52,0.00,,,0.00,WUHU216HW,2013-01-19 02:21:00,
2013-01-18 20:22:00,44.8,28.3,30.20,SSW,203,10.3,13.4,52,0.00,,,0.00,WUHU216HW,2013-01-19 02:22:00,
2013-01-18 20:23:00,44.8,28.3,30.20,SSW,203,10.3,13.4,52,0.00,,,0.00,WUHU216HW,2013-01-19 02:23:00,
2013-01-18 20:26:00,44.8,28.3,30.20,SSE,158,11.2,13.4,52,0.00,,,0.00,WUHU216HW,2013-01-19 02:26:00,
2013-01-18 20:28:00,44.8,28.3,30.20,SSW,203,10.5,13.4,52,0.00,,,0.00,WUHU216HW,2013-01-19 02:28:00,
2013-01-18 20:30:00,45.0,28.0,30.20,SW,225,10.1,13.4,51,0.00,,,0.00,WUHU216HW,2013-01-19 02:30:00,
2013-01-18 20:32:00,45.0,28.0,30.20,SSE,158,9.8,13.2,51,0.00,,,0.00,WUHU216HW,2013-01-19 02:32:00,
2013-01-18 20:33:00,45.0,28.0,30.20,SSE,158,9.8,13.2,51,0.00,,,0.00,WUHU216HW,2013-01-19 02:33:00,
2013-01-18 20:34:00,45.2,28.1,30.20,SSW,203,10.7,13.4,51,0.00,,,0.00,WUHU216HW,2013-01-19 02:34:00,
2013-01-18 20:38:00,45.4,28.3,30.20,SSW,203,7.4,13.4,51,0.00,,,0.00,WUHU216HW,2013-01-19 02:38:00,
2013-01-18 20:39:00,45.4,27.8,30.20,South,180,9.4,13.4,50,0.00,,,0.00,WUHU216HW,2013-01-19 02:39:00,
2013-01-18 20:40:00,45.4,27.8,30.20,SSW,203,9.8,13.4,50,0.00,,,0.00,WUHU216HW,2013-01-19 02:40:00,
2013-01-18 20:41:00,45.4,27.8,30.20,South,180,10.7,13.4,50,0.00,,,0.00,WUHU216HW,2013-01-19 02:41:00,
2013-01-18 20:43:00,45.4,27.8,30.20,SSW,203,13.2,13.4,50,0.00,,,0.00,WUHU216HW,2013-01-19 02:43:00,
2013-01-18 20:44:00,45.4,27.8,30.20,SSW,203,10.5,13.2,50,0.00,,,0.00,WUHU216HW,2013-01-19 02:44:00,
2013-01-18 20:45:00,45.4,27.8,30.20,South,180,12.1,13.2,50,0.00,,,0.00,WUHU216HW,2013-01-19 02:45:00,
2013-01-18 20:46:00,45.4,27.8,30.20,SSW,203,9.2,13.2,50,0.00,,,0.00,WUHU216HW,2013-01-19 02:46:00,
2013-01-18 20:48:00,45.4,27.8,30.20,SSW,203,12.1,13.2,50,0.00,,,0.00,WUHU216HW,2013-01-19 02:48:00,
2013-01-18 20:50:00,45.2,27.6,30.20,SSW,203,7.6,13.2,50,0.00,,,0.00,WUHU216HW,2013-01-19 02:50:00,
2013-01-18 20:53:00,45.0,27.6,30.20,South,180,10.5,14.1,50,0.00,,,0.00,WUHU216HW,2013-01-19 02:53:00,
2013-01-18 20:54:00,45.0,27.6,30.20,SSW,203,11.6,14.1,50,0.00,,,0.00,WUHU216HW,2013-01-19 02:54:00,
2013-01-18 20:57:00,45.0,28.0,30.20,SSW,203,6.9,14.1,51,0.00,,,0.00,WUHU216HW,2013-01-19 02:57:00,
2013-01-18 20:58:00,44.8,27.8,30.20,SSW,203,8.5,14.1,51,0.00,,,0.00,WUHU216HW,2013-01-19 02:58:00,
2013-01-18 20:59:00,44.8,27.8,30.20,South,180,8.5,14.1,51,0.00,,,0.00,WUHU216HW,2013-01-19 02:59:00,
2013-01-18 21:00:00,44.8,27.8,30.20,SSW,203,11.0,14.1,51,0.00,,,0.00,WUHU216HW,2013-01-19 03:00:00,
2013-01-18 21:03:00,45.0,27.6,30.20,South,180,7.2,11.9,50,0.00,,,0.00,WUHU216HW,2013-01-19 03:03:00,
2013-01-18 21:05:00,45.0,27.6,30.20,South,180,10.5,11.9,50,0.00,,,0.00,WUHU216HW,2013-01-19 03:05:00,
2013-01-18 21:07:00,45.0,27.6,30.20,WSW,248,7.4,11.9,50,0.00,,,0.00,WUHU216HW,2013-01-19 03:07:00,
2013-01-18 21:08:00,45.0,27.6,30.20,South,180,9.2,11.9,50,0.00,,,0.00,WUHU216HW,2013-01-19 03:08:00,
2013-01-18 21:10:00,44.8,27.8,30.20,SSW,203,8.3,11.9,51,0.00,,,0.00,WUHU216HW,2013-01-19 03:10:00,
2013-01-18 21:11:00,44.8,27.8,30.20,West,270,7.2,11.4,51,0.00,,,0.00,WUHU216HW,2013-01-19 03:11:00,
2013-01-18 21:12:00,44.6,27.6,30.20,SSW,203,6.9,11.4,51,0.00,,,0.00,WUHU216HW,2013-01-19 03:12:00,
2013-01-18 21:13:00,44.6,27.6,30.20,SSW,203,6.9,11.4,51,0.00,,,0.00,WUHU216HW,2013-01-19 03:13:00,
2013-01-18 21:14:00,44.6,27.6,30.20,SSW,203,10.1,11.4,51,0.00,,,0.00,WUHU216HW,2013-01-19 03:14:00,
2013-01-18 21:15:00,44.8,27.4,30.20,SW,225,8.3,11.4,50,0.00,,,0.00,WUHU216HW,2013-01-19 03:15:00,
2013-01-18 21:17:00,44.8,27.8,30.20,SW,225,6.9,11.4,51,0.00,,,0.00,WUHU216HW,2013-01-19 03:17:00,
2013-01-18 21:18:00,44.8,27.4,30.20,SSW,203,9.6,11.4,50,0.00,,,0.00,WUHU216HW,2013-01-19 03:18:00,
2013-01-18 21:19:00,44.8,27.4,30.20,SSW,203,9.6,11.4,50,0.00,,,0.00,WUHU216HW,2013-01-19 03:19:00,
2013-01-18 21:20:00,44.8,27.8,30.20,SW,225,8.5,11.4,51,0.00,,,0.00,WUHU216HW,2013-01-19 03:20:00,
2013-01-18 21:23:00,44.6,27.6,30.20,SSW,203,6.9,11.4,51,0.00,,,0.00,WUHU216HW,2013-01-19 03:23:00,
2013-01-18 21:24:00,44.6,27.6,30.20,SSW,203,6.9,11.4,51,0.00,,,0.00,WUHU216HW,2013-01-19 03:24:00,
2013-01-18 21:25:00,44.6,27.6,30.20,South,180,10.7,11.4,51,0.00,,,0.00,WUHU216HW,2013-01-19 03:25:00,
2013-01-18 21:27:00,44.5,27.5,30.20,SSW,203,8.3,11.4,51,0.00,,,0.00,WUHU216HW,2013-01-19 03:27:00,
2013-01-18 21:29:00,44.5,27.5,30.20,SSW,203,11.0,11.4,51,0.00,,,0.00,WUHU216HW,2013-01-19 03:29:00,
2013-01-18 21:30:00,44.5,27.5,30.20,SSW,203,9.8,12.5,51,0.00,,,0.00,WUHU216HW,2013-01-19 03:30:00,
2013-01-18 21:31:00,44.5,27.5,30.20,SW,225,6.5,12.5,51,0.00,,,0.00,WUHU216HW,2013-01-19 03:31:00,
2013-01-18 21:33:00,44.3,27.3,30.20,SSW,203,7.6,12.5,51,0.00,,,0.00,WUHU216HW,2013-01-19 03:33:00,
2013-01-18 21:34:00,44.3,27.3,30.20,SSW,203,7.6,12.5,51,0.00,,,0.00,WUHU216HW,2013-01-19 03:34:00,
2013-01-18 21:36:00,44.3,27.3,30.20,SSW,203,12.5,12.5,51,0.00,,,0.00,WUHU216HW,2013-01-19 03:36:00,
2013-01-18 21:38:00,44.3,27.7,30.20,SSW,203,8.5,12.5,52,0.00,,,0.00,WUHU216HW,2013-01-19 03:38:00,
2013-01-18 21:39:00,44.3,27.3,30.20,SSW,203,9.6,12.5,51,0.00,,,0.00,WUHU216HW,2013-01-19 03:39:00,
2013-01-18 21:42:00,44.3,27.7,30.20,SW,225,9.8,12.8,52,0.00,,,0.00,WUHU216HW,2013-01-19 03:42:00,
2013-01-18 21:44:00,44.3,27.7,30.19,SSW,203,9.4,12.8,52,0.00,,,0.00,WUHU216HW,2013-01-19 03:44:00,
2013-01-18 21:45:00,44.3,27.7,30.20,SSW,203,10.3,12.8,52,0.00,,,0.00,WUHU216HW,2013-01-19 03:45:00,
2013-01-18 21:47:00,44.3,27.7,30.19,SSW,203,8.5,12.8,52,0.00,,,0.00,WUHU216HW,2013-01-19 03:47:00,
2013-01-18 21:48:00,44.3,27.7,30.19,SW,225,9.2,12.8,52,0.00,,,0.00,WUHU216HW,2013-01-19 03:48:00,
2013-01-18 21:49:00,44.3,27.7,30.19,SW,225,9.2,12.8,52,0.00,,,0.00,WUHU216HW,2013-01-19 03:49:00,
2013-01-18 21:50:00,44.1,28.0,30.20,South,180,6.3,11.6,53,0.00,,,0.00,WUHU216HW,2013-01-19 03:50:00,
2013-01-18 21:53:00,44.1,28.0,30.20,SSW,203,10.5,13.0,53,0.00,,,0.00,WUHU216HW,2013-01-19 03:53:00,
2013-01-18 21:54:00,44.3,28.2,30.20,SW,225,6.9,13.0,53,0.00,,,0.00,WUHU216HW,2013-01-19 03:54:00,
2013-01-18 21:55:00,44.3,28.2,30.20,SW,225,6.9,13.0,53,0.00,,,0.00,WUHU216HW,2013-01-19 03:55:00,
2013-01-18 21:56:00,44.3,27.7,30.20,SW,225,7.4,13.0,52,0.00,,,0.00,WUHU216HW,2013-01-19 03:56:00,
2013-01-18 21:57:00,44.1,28.0,30.20,SSW,203,8.5,13.0,53,0.00,,,0.00,WUHU216HW,2013-01-19 03:57:00,
2013-01-18 21:59:00,44.1,28.0,30.20,SSW,203,7.2,13.0,53,0.00,,,0.00,WUHU216HW,2013-01-19 03:59:00,
2013-01-18 22:00:00,44.1,28.0,30.20,SSW,203,7.2,13.0,53,0.00,,,0.00,WUHU216HW,2013-01-19 04:00:00,
2013-01-18 22:02:00,43.9,27.9,30.20,SSW,203,6.3,11.2,53,0.00,,,0.00,WUHU216HW,2013-01-19 04:02:00,
2013-01-18 22:03:00,43.9,27.9,30.20,SSW,203,5.8,11.2,53,0.00,,,0.00,WUHU216HW,2013-01-19 04:03:00,
2013-01-18 22:05:00,43.9,27.9,30.20,SW,225,6.9,11.2,53,0.00,,,0.00,WUHU216HW,2013-01-19 04:05:00,
2013-01-18 22:07:00,43.9,27.9,30.20,South,180,9.2,10.1,53,0.00,,,0.00,WUHU216HW,2013-01-19 04:07:00,
2013-01-18 22:08:00,43.7,27.7,30.20,SSW,203,7.4,12.1,53,0.00,,,0.00,WUHU216HW,2013-01-19 04:08:00,
2013-01-18 22:09:00,43.7,27.7,30.20,South,180,8.1,12.1,53,0.00,,,0.00,WUHU216HW,2013-01-19 04:09:00,
2013-01-18 22:10:00,43.7,27.7,30.20,South,180,8.1,12.1,53,0.00,,,0.00,WUHU216HW,2013-01-19 04:10:00,
2013-01-18 22:12:00,43.7,27.7,30.19,South,180,10.3,12.1,53,0.00,,,0.00,WUHU216HW,2013-01-19 04:12:00,
2013-01-18 22:13:00,43.7,27.7,30.19,SSW,203,7.6,12.1,53,0.00,,,0.00,WUHU216HW,2013-01-19 04:13:00,
2013-01-18 22:15:00,43.6,27.6,30.19,SSW,203,11.0,12.1,53,0.00,,,0.00,WUHU216HW,2013-01-19 04:15:00,
2013-01-18 22:16:00,43.7,27.7,30.19,South,180,8.1,12.1,53,0.00,,,0.00,WUHU216HW,2013-01-19 04:16:00,
2013-01-18 22:18:00,43.7,27.7,30.19,SW,225,6.9,11.4,53,0.00,,,0.00,WUHU216HW,2013-01-19 04:18:00,
2013-01-18 22:19:00,43.7,27.7,30.19,SSW,203,8.9,11.0,53,0.00,,,0.00,WUHU216HW,2013-01-19 04:19:00,
2013-01-18 22:20:00,43.7,27.7,30.19,SSW,203,8.9,11.0,53,0.00,,,0.00,WUHU216HW,2013-01-19 04:20:00,
2013-01-18 22:21:00,43.6,27.6,30.19,SSE,158,7.6,11.0,53,0.00,,,0.00,WUHU216HW,2013-01-19 04:21:00,
2013-01-18 22:22:00,43.6,27.6,30.19,SSW,203,9.8,11.0,53,0.00,,,0.00,WUHU216HW,2013-01-19 04:22:00,
2013-01-18 22:24:00,43.6,27.6,30.19,SW,225,8.9,11.0,53,0.00,,,0.00,WUHU216HW,2013-01-19 04:24:00,
2013-01-18 22:25:00,43.6,27.6,30.19,SSW,203,9.8,11.0,53,0.00,,,0.00,WUHU216HW,2013-01-19 04:25:00,
2013-01-18 22:26:00,43.6,27.6,30.19,SSW,203,9.2,11.0,53,0.00,,,0.00,WUHU216HW,2013-01-19 04:26:00,
2013-01-18 22:28:00,43.6,27.6,30.19,SSW,203,6.5,10.7,53,0.00,,,0.00,WUHU216HW,2013-01-19 04:28:00,
2013-01-18 22:29:00,43.6,27.6,30.19,South,180,8.7,11.6,53,0.00,,,0.00,WUHU216HW,2013-01-19 04:29:00,
2013-01-18 22:30:00,43.6,27.6,30.19,South,180,8.7,11.6,53,0.00,,,0.00,WUHU216HW,2013-01-19 04:30:00,
2013-01-18 22:31:00,43.6,27.6,30.19,South,180,5.4,11.9,53,0.00,,,0.00,WUHU216HW,2013-01-19 04:31:00,
2013-01-18 22:32:00,43.6,27.6,30.19,SSW,203,9.8,11.9,53,0.00,,,0.00,WUHU216HW,2013-01-19 04:32:00,
2013-01-18 22:34:00,43.6,27.6,30.19,SW,225,12.3,12.3,53,0.00,,,0.00,WUHU216HW,2013-01-19 04:34:00,
2013-01-18 22:35:00,43.6,27.6,30.19,SSW,203,8.5,12.3,53,0.00,,,0.00,WUHU216HW,2013-01-19 04:35:00,
2013-01-18 22:36:00,43.6,27.6,30.18,South,180,6.9,12.3,53,0.00,,,0.00,WUHU216HW,2013-01-19 04:36:00,
2013-01-18 22:38:00,43.6,27.6,30.18,SSW,203,10.7,12.3,53,0.00,,,0.00,WUHU216HW,2013-01-19 04:38:00,
2013-01-18 22:40:00,43.6,27.6,30.18,SSW,203,10.5,12.3,53,0.00,,,0.00,WUHU216HW,2013-01-19 04:40:00,
2013-01-18 22:43:00,43.7,27.7,30.18,SSW,203,8.3,14.3,53,0.00,,,0.00,WUHU216HW,2013-01-19 04:43:00,
2013-01-18 22:45:00,43.7,27.7,30.18,South,180,7.8,14.3,53,0.00,,,0.00,WUHU216HW,2013-01-19 04:45:00,
2013-01-18 22:46:00,43.6,27.6,30.18,SSW,203,6.0,14.3,53,0.00,,,0.00,WUHU216HW,2013-01-19 04:46:00,
2013-01-18 22:48:00,43.6,28.0,30.19,South,180,7.6,14.3,54,0.00,,,0.00,WUHU216HW,2013-01-19 04:48:00,
2013-01-18 22:49:00,43.4,27.8,30.18,South,180,8.1,14.3,54,0.00,,,0.00,WUHU216HW,2013-01-19 04:49:00,
2013-01-18 22:50:00,43.4,27.8,30.19,SSW,203,7.6,11.2,54,0.00,,,0.00,WUHU216HW,2013-01-19 04:50:00,
2013-01-18 22:52:00,43.4,27.8,30.19,SW,225,8.9,11.2,54,0.00,,,0.00,WUHU216HW,2013-01-19 04:52:00,
2013-01-18 22:53:00,43.4,27.8,30.19,SSW,203,6.9,10.7,54,0.00,,,0.00,WUHU216HW,2013-01-19 04:53:00,
2013-01-18 22:55:00,43.4,27.8,30.19,SW,225,7.8,10.7,54,0.00,,,0.00,WUHU216HW,2013-01-19 04:55:00,
2013-01-18 22:56:00,43.4,27.8,30.19,SW,225,7.8,10.7,54,0.00,,,0.00,WUHU216HW,2013-01-19 04:56:00,
2013-01-18 22:57:00,43.4,27.8,30.19,SSW,203,9.8,10.7,54,0.00,,,0.00,WUHU216HW,2013-01-19 04:57:00,
2013-01-18 23:00:00,43.4,27.8,30.19,SW,225,7.2,13.0,54,0.00,,,0.00,WUHU216HW,2013-01-19 05:00:00,
2013-01-18 23:01:00,43.4,27.8,30.19,SW,225,7.2,13.0,54,0.00,,,0.00,WUHU216HW,2013-01-19 05:01:00,
2013-01-18 23:02:00,43.4,27.8,30.19,South,180,11.4,13.0,54,0.00,,,0.00,WUHU216HW,2013-01-19 05:02:00,
2013-01-18 23:03:00,43.4,27.8,30.19,SW,225,8.7,13.0,54,0.00,,,0.00,WUHU216HW,2013-01-19 05:03:00,
2013-01-18 23:04:00,43.6,28.0,30.19,WSW,248,9.4,13.0,54,0.00,,,0.00,WUHU216HW,2013-01-19 05:04:00,
2013-01-18 23:05:00,43.6,28.0,30.19,SSW,203,7.6,13.0,54,0.00,,,0.00,WUHU216HW,2013-01-19 05:05:00,
2013-01-18 23:07:00,43.6,28.0,30.18,SSW,203,10.7,13.0,54,0.00,,,0.00,WUHU216HW,2013-01-19 05:07:00,
2013-01-18 23:09:00,43.6,28.0,30.18,SSW,203,11.0,12.5,54,0.00,,,0.00,WUHU216HW,2013-01-19 05:09:00,
2013-01-18 23:10:00,43.6,28.0,30.18,SSW,203,11.0,12.5,54,0.00,,,0.00,WUHU216HW,2013-01-19 05:10:00,
2013-01-18 23:12:00,43.6,28.0,30.18,WSW,248,8.3,12.5,54,0.00,,,0.00,WUHU216HW,2013-01-19 05:12:00,
2013-01-18 23:15:00,43.6,28.0,30.18,South,180,6.9,12.1,54,0.00,,,0.00,WUHU216HW,2013-01-19 05:15:00,
2013-01-18 23:16:00,43.7,28.2,30.18,SSW,203,10.7,12.1,54,0.00,,,0.00,WUHU216HW,2013-01-19 05:16:00,
2013-01-18 23:18:00,43.7,28.2,30.18,SSW,203,11.9,12.1,54,0.00,,,0.00,WUHU216HW,2013-01-19 05:18:00,
2013-01-18 23:20:00,43.7,28.2,30.18,South,180,8.9,11.9,54,0.00,,,0.00,WUHU216HW,2013-01-19 05:20:00,
2013-01-18 23:21:00,43.7,28.2,30.18,SSW,203,11.2,11.9,54,0.00,,,0.00,WUHU216HW,2013-01-19 05:21:00,
2013-01-18 23:23:00,43.7,28.2,30.18,SSW,203,8.3,11.9,54,0.00,,,0.00,WUHU216HW,2013-01-19 05:23:00,
2013-01-18 23:24:00,43.6,28.0,30.18,SW,225,12.8,12.8,54,0.00,,,0.00,WUHU216HW,2013-01-19 05:24:00,
2013-01-18 23:25:00,43.6,28.0,30.18,SW,225,12.8,12.8,54,0.00,,,0.00,WUHU216HW,2013-01-19 05:25:00,
2013-01-18 23:26:00,43.6,28.0,30.18,SSE,158,9.6,12.8,54,0.00,,,0.00,WUHU216HW,2013-01-19 05:26:00,
2013-01-18 23:27:00,43.7,28.2,30.18,SSW,203,8.5,12.8,54,0.00,,,0.00,WUHU216HW,2013-01-19 05:27:00,
2013-01-18 23:30:00,43.7,28.2,30.18,SSW,203,7.6,12.8,54,0.00,,,0.00,WUHU216HW,2013-01-19 05:30:00,
2013-01-18 23:31:00,43.7,28.2,30.18,South,180,9.8,12.8,54,0.00,,,0.00,WUHU216HW,2013-01-19 05:31:00,
2013-01-18 23:32:00,43.9,28.3,30.18,SSW,203,10.7,13.4,54,0.00,,,0.00,WUHU216HW,2013-01-19 05:32:00,
2013-01-18 23:34:00,43.9,28.3,30.18,SW,225,7.8,13.4,54,0.00,,,0.00,WUHU216HW,2013-01-19 05:34:00,
2013-01-18 23:35:00,43.9,28.3,30.18,SW,225,7.8,13.4,54,0.00,,,0.00,WUHU216HW,2013-01-19 05:35:00,
2013-01-18 23:38:00,43.6,28.5,30.18,SSW,203,8.5,13.4,55,0.00,,,0.00,WUHU216HW,2013-01-19 05:38:00,
2013-01-18 23:40:00,43.6,28.0,30.18,SSW,203,9.4,13.4,54,0.00,,,0.00,WUHU216HW,2013-01-19 05:40:00,
2013-01-18 23:41:00,43.6,28.5,30.18,SSW,203,10.1,13.4,55,0.00,,,0.00,WUHU216HW,2013-01-19 05:41:00,
2013-01-18 23:45:00,43.4,28.3,30.18,SSW,203,10.7,13.0,55,0.00,,,0.00,WUHU216HW,2013-01-19 05:45:00,
2013-01-18 23:47:00,43.4,28.3,30.18,South,180,9.8,13.0,55,0.00,,,0.00,WUHU216HW,2013-01-19 05:47:00,
2013-01-18 23:48:00,43.4,28.3,30.18,SW,225,6.9,13.0,55,0.00,,,0.00,WUHU216HW,2013-01-19 05:48:00,
2013-01-18 23:50:00,43.4,28.3,30.18,SSW,203,8.3,13.0,55,0.00,,,0.00,WUHU216HW,2013-01-19 05:50:00,
2013-01-18 23:51:00,43.4,28.3,30.18,SSW,203,8.3,13.0,55,0.00,,,0.00,WUHU216HW,2013-01-19 05:51:00,
2013-01-18 23:55:00,43.4,28.3,30.18,SW,225,7.2,12.3,55,0.00,,,0.00,WUHU216HW,2013-01-19 05:55:00,
2013-01-18 23:56:00,43.4,28.3,30.18,SW,225,7.2,12.3,55,0.00,,,0.00,WUHU216HW,2013-01-19 05:56:00,
2013-01-18 23:57:00,43.2,28.1,30.18,South,180,8.5,12.3,55,0.00,,,0.00,WUHU216HW,2013-01-19 05:57:00,
2013-01-18 23:59:00,43.2,28.1,30.18,South,180,9.6,12.3,55,0.00,,,0.00,WUHU216HW,2013-01-19 05:59:00,